Time,TemperatureF,DewpointF,PressureIn,WindDirection,WindDirectionDegrees,WindSpeedMPH,WindSpeedGustMPH,Humidity,HourlyPrecipIn,Conditions,Clouds,dailyrainin,SoftwareType,DateUTC
2013-01-21 00:00:00,21.8,12.4,29.52,SSW,203,3.4,3.8,67,0.17,,,4.00,WUHU216HW,2013-01-21 05:00:00,
2013-01-21 00:03:00,21.8,12.4,29.51,West,270,2.5,5.6,67,0.16,,,0.16,WUHU216HW,2013-01-21 05:03:00,
2013-01-21 00:04:00,21.6,12.2,29.51,WSW,248,5.4,5.6,67,0.16,,,0.16,WUHU216HW,2013-01-21 05:04:00,
2013-01-21 00:05:00,21.6,12.2,29.51,WNW,293,2.9,5.6,67,0.16,,,0.16,WUHU216HW,2013-01-21 05:05:00,
2013-01-21 00:08:00,21.6,12.2,29.51,WSW,248,2.9,5.6,67,0.16,,,0.16,WUHU216HW,2013-01-21 05:08:00,
2013-01-21 00:09:00,21.6,12.6,29.51,SW,225,2.5,5.6,68,0.16,,,0.16,WUHU216HW,2013-01-21 05:09:00,
2013-01-21 00:10:00,21.6,12.2,29.51,WSW,248,0.0,5.6,67,0.16,,,0.16,WUHU216HW,2013-01-21 05:10:00,
2013-01-21 00:13:00,21.6,12.6,29.51,West,270,1.1,5.4,68,0.16,,,0.16,WUHU216HW,2013-01-21 05:13:00,
2013-01-21 00:14:00,21.6,12.2,29.51,West,270,0.4,4.0,67,0.16,,,0.16,WUHU216HW,2013-01-21 05:14:00,
2013-01-21 00:15:00,21.6,12.2,29.51,WSW,248,2.5,4.0,67,0.16,,,0.16,WUHU216HW,2013-01-21 05:15:00,
2013-01-21 00:18:00,21.6,12.2,29.51,NW,315,4.3,4.3,67,0.16,,,0.16,WUHU216HW,2013-01-21 05:18:00,
2013-01-21 00:19:00,21.6,12.2,29.51,WSW,248,0.7,4.3,67,0.16,,,0.16,WUHU216HW,2013-01-21 05:19:00,
2013-01-21 00:21:00,21.6,12.2,29.51,NW,315,3.8,4.3,67,0.16,,,0.16,WUHU216HW,2013-01-21 05:21:00,
2013-01-21 00:23:00,21.4,12.2,29.51,WSW,248,1.8,4.3,67,0.16,,,0.16,WUHU216HW,2013-01-21 05:23:00,
2013-01-21 00:25:00,21.4,12.2,29.51,NW,315,2.9,4.3,67,0.16,,,0.16,WUHU216HW,2013-01-21 05:25:00,
2013-01-21 00:26:00,21.4,12.2,29.51,WSW,248,4.5,4.5,67,0.16,,,0.16,WUHU216HW,2013-01-21 05:26:00,
2013-01-21 00:28:00,21.4,12.2,29.51,WSW,248,3.1,4.5,67,0.16,,,0.16,WUHU216HW,2013-01-21 05:28:00,
2013-01-21 00:30:00,21.4,12.2,29.50,West,270,0.7,4.5,67,0.16,,,0.16,WUHU216HW,2013-01-21 05:30:00,
2013-01-21 00:31:00,21.4,12.4,29.51,SSW,203,2.5,4.5,68,0.16,,,0.16,WUHU216HW,2013-01-21 05:31:00,
2013-01-21 00:34:00,21.6,12.6,29.50,WSW,248,0.9,4.5,68,0.16,,,0.16,WUHU216HW,2013-01-21 05:34:00,
2013-01-21 00:36:00,21.6,12.6,29.50,West,270,1.1,4.0,68,0.16,,,0.16,WUHU216HW,2013-01-21 05:36:00,
2013-01-21 00:37:00,21.6,12.6,29.50,WSW,248,1.6,4.3,68,0.16,,,0.16,WUHU216HW,2013-01-21 05:37:00,
2013-01-21 00:39:00,21.6,12.6,29.50,WNW,293,3.4,4.3,68,0.16,,,0.16,WUHU216HW,2013-01-21 05:39:00,
2013-01-21 00:41:00,21.6,12.6,29.50,WSW,248,1.1,4.3,68,0.16,,,0.16,WUHU216HW,2013-01-21 05:41:00,
2013-01-21 00:42:00,21.6,12.6,29.50,SW,225,0.9,4.3,68,0.16,,,0.16,WUHU216HW,2013-01-21 05:42:00,
2013-01-21 00:44:00,21.6,12.6,29.50,WSW,248,1.1,4.3,68,0.16,,,0.16,WUHU216HW,2013-01-21 05:44:00,
2013-01-21 00:46:00,21.6,13.0,29.50,WNW,293,1.1,4.3,69,0.16,,,0.16,WUHU216HW,2013-01-21 05:46:00,
2013-01-21 00:47:00,21.6,13.0,29.50,WNW,293,3.1,3.4,69,0.16,,,0.16,WUHU216HW,2013-01-21 05:47:00,
2013-01-21 00:49:00,21.4,12.8,29.50,SSW,203,0.7,4.3,69,0.16,,,0.16,WUHU216HW,2013-01-21 05:49:00,
2013-01-21 00:51:00,21.4,12.8,29.50,West,270,3.8,4.3,69,0.16,,,0.16,WUHU216HW,2013-01-21 05:51:00,
2013-01-21 00:52:00,21.2,13.0,29.50,WSW,248,0.7,4.3,70,0.16,,,0.16,WUHU216HW,2013-01-21 05:52:00,
2013-01-21 00:54:00,21.2,13.2,29.50,WSW,248,3.4,4.3,71,0.16,,,0.16,WUHU216HW,2013-01-21 05:54:00,
2013-01-21 00:55:00,21.2,13.2,29.50,WSW,248,3.4,4.3,71,0.16,,,0.16,WUHU216HW,2013-01-21 05:55:00,
2013-01-21 00:56:00,21.2,13.2,29.49,West,270,2.9,4.3,71,0.16,,,0.16,WUHU216HW,2013-01-21 05:56:00,
2013-01-21 00:58:00,21.2,13.2,29.49,WNW,293,0.7,4.0,71,0.16,,,0.16,WUHU216HW,2013-01-21 05:58:00,
2013-01-21 00:59:00,21.1,13.1,29.49,SW,225,2.5,4.0,71,0.16,,,0.16,WUHU216HW,2013-01-21 05:59:00,
2013-01-21 01:00:00,21.1,13.1,29.49,West,270,1.6,4.0,71,0.00,,,0.16,WUHU216HW,2013-01-21 06:00:00,
2013-01-21 01:02:00,21.1,13.4,29.49,NW,315,1.3,4.0,72,0.32,,,0.48,WUHU216HW,2013-01-21 06:02:00,
2013-01-21 01:03:00,21.1,13.4,29.49,West,270,2.0,4.0,72,0.32,,,0.48,WUHU216HW,2013-01-21 06:03:00,
2013-01-21 01:04:00,21.1,13.4,29.49,WSW,248,2.5,4.0,72,0.32,,,0.48,WUHU216HW,2013-01-21 06:04:00,
2013-01-21 01:05:00,21.1,13.4,29.49,SSE,158,2.0,4.0,72,0.32,,,0.48,WUHU216HW,2013-01-21 06:05:00,
2013-01-21 01:07:00,20.9,13.2,29.49,SW,225,0.4,3.8,72,0.32,,,0.48,WUHU216HW,2013-01-21 06:07:00,
2013-01-21 01:08:00,20.9,12.9,29.49,SW,225,1.1,3.8,71,0.32,,,0.48,WUHU216HW,2013-01-21 06:08:00,
2013-01-21 01:09:00,21.1,13.7,29.49,NW,315,1.6,3.6,73,0.32,,,0.48,WUHU216HW,2013-01-21 06:09:00,
2013-01-21 01:10:00,21.1,13.7,29.49,NW,315,1.6,3.6,73,0.32,,,0.48,WUHU216HW,2013-01-21 06:10:00,
2013-01-21 01:12:00,21.1,13.7,29.49,West,270,2.5,2.5,73,0.32,,,0.48,WUHU216HW,2013-01-21 06:12:00,
2013-01-21 01:13:00,21.1,13.7,29.49,SSE,158,1.8,2.5,73,0.32,,,0.48,WUHU216HW,2013-01-21 06:13:00,
2013-01-21 01:15:00,21.1,13.7,29.49,WSW,248,4.0,4.0,73,0.32,,,0.48,WUHU216HW,2013-01-21 06:15:00,
2013-01-21 01:18:00,21.1,13.7,29.48,West,270,2.2,4.0,73,0.32,,,0.48,WUHU216HW,2013-01-21 06:18:00,
2013-01-21 01:20:00,21.1,14.1,29.49,West,270,1.8,4.0,74,0.32,,,0.48,WUHU216HW,2013-01-21 06:20:00,
2013-01-21 01:23:00,21.1,13.4,29.48,SW,225,4.0,4.0,72,0.32,,,0.48,WUHU216HW,2013-01-21 06:23:00,
2013-01-21 01:24:00,21.1,13.4,29.48,West,270,1.8,4.0,72,0.32,,,0.48,WUHU216HW,2013-01-21 06:24:00,
2013-01-21 01:25:00,21.1,13.4,29.48,WSW,248,1.6,4.0,72,0.32,,,0.48,WUHU216HW,2013-01-21 06:25:00,
2013-01-21 01:29:00,21.1,13.4,29.48,West,270,2.0,4.0,72,0.32,,,0.48,WUHU216HW,2013-01-21 06:29:00,
2013-01-21 01:30:00,21.1,13.7,29.48,WSW,248,0.9,4.0,73,0.32,,,0.48,WUHU216HW,2013-01-21 06:30:00,
2013-01-21 01:34:00,21.1,13.7,29.48,WSW,248,1.1,5.4,73,0.32,,,0.48,WUHU216HW,2013-01-21 06:34:00,
2013-01-21 01:35:00,21.1,13.7,29.48,SW,225,1.1,5.4,73,0.32,,,0.48,WUHU216HW,2013-01-21 06:35:00,
2013-01-21 01:39:00,21.1,13.4,29.48,SE,135,1.6,5.4,72,0.32,,,0.48,WUHU216HW,2013-01-21 06:39:00,
2013-01-21 01:40:00,21.1,13.7,29.48,WSW,248,2.2,5.4,73,0.32,,,0.48,WUHU216HW,2013-01-21 06:40:00,
2013-01-21 01:44:00,21.1,13.4,29.48,SSW,203,0.9,3.4,72,0.32,,,0.48,WUHU216HW,2013-01-21 06:44:00,
2013-01-21 01:45:00,21.1,13.4,29.48,South,180,1.1,3.4,72,0.32,,,0.48,WUHU216HW,2013-01-21 06:45:00,
2013-01-21 01:46:00,21.1,13.4,29.48,South,180,1.1,3.4,72,0.32,,,0.48,WUHU216HW,2013-01-21 06:46:00,
2013-01-21 01:49:00,21.1,13.4,29.48,WSW,248,0.4,3.4,72,0.32,,,0.48,WUHU216HW,2013-01-21 06:49:00,
2013-01-21 01:51:00,21.1,13.4,29.47,SSW,203,3.4,3.4,72,0.32,,,0.48,WUHU216HW,2013-01-21 06:51:00,
2013-01-21 01:54:00,21.2,13.6,29.48,WNW,293,6.3,6.3,72,0.32,,,0.48,WUHU216HW,2013-01-21 06:54:00,
2013-01-21 01:55:00,21.2,13.6,29.48,WSW,248,3.8,6.3,72,0.32,,,0.48,WUHU216HW,2013-01-21 06:55:00,
2013-01-21 01:56:00,21.1,13.4,29.48,West,270,3.4,6.3,72,0.32,,,0.48,WUHU216HW,2013-01-21 06:56:00,
2013-01-21 01:59:00,21.1,13.7,29.48,SW,225,0.2,6.3,73,0.32,,,0.48,WUHU216HW,2013-01-21 06:59:00,
2013-01-21 02:00:00,21.1,13.7,29.48,WSW,248,1.1,6.3,73,0.16,,,0.48,WUHU216HW,2013-01-21 07:00:00,
2013-01-21 02:01:00,21.1,13.4,29.48,NW,315,1.3,6.3,72,0.33,,,0.81,WUHU216HW,2013-01-21 07:01:00,
2013-01-21 02:02:00,21.1,13.4,29.48,West,270,2.5,6.3,72,0.33,,,0.81,WUHU216HW,2013-01-21 07:02:00,
2013-01-21 02:05:00,21.1,13.4,29.48,WNW,293,1.3,4.0,72,0.33,,,0.81,WUHU216HW,2013-01-21 07:05:00,
2013-01-21 02:06:00,20.9,13.2,29.48,WNW,293,3.6,4.0,72,0.33,,,0.81,WUHU216HW,2013-01-21 07:06:00,
2013-01-21 02:07:00,20.9,13.2,29.48,SSW,203,1.3,4.0,72,0.33,,,0.81,WUHU216HW,2013-01-21 07:07:00,
2013-01-21 02:10:00,20.9,13.2,29.48,SSW,203,3.1,4.0,72,0.33,,,0.81,WUHU216HW,2013-01-21 07:10:00,
2013-01-21 02:12:00,20.9,13.2,29.48,SW,225,2.2,4.0,72,0.33,,,0.81,WUHU216HW,2013-01-21 07:12:00,
2013-01-21 02:15:00,20.9,13.2,29.47,West,270,4.0,4.0,72,0.33,,,0.81,WUHU216HW,2013-01-21 07:15:00,
2013-01-21 02:17:00,20.7,13.1,29.47,WSW,248,1.8,4.0,72,0.33,,,0.81,WUHU216HW,2013-01-21 07:17:00,
2013-01-21 02:20:00,20.7,13.1,29.48,NW,315,2.9,5.1,72,0.33,,,0.81,WUHU216HW,2013-01-21 07:20:00,
2013-01-21 02:22:00,20.5,12.9,29.47,NW,315,3.6,5.1,72,0.33,,,0.81,WUHU216HW,2013-01-21 07:22:00,
2013-01-21 02:23:00,20.5,12.9,29.47,North,0,1.3,5.1,72,0.33,,,0.81,WUHU216HW,2013-01-21 07:23:00,
2013-01-21 02:25:00,20.5,13.1,29.47,WNW,293,3.4,5.6,73,0.33,,,0.81,WUHU216HW,2013-01-21 07:25:00,
2013-01-21 02:26:00,20.5,12.9,29.47,SSW,203,1.8,5.6,72,0.33,,,0.81,WUHU216HW,2013-01-21 07:26:00,
2013-01-21 02:28:00,20.3,12.7,29.47,WSW,248,3.4,5.6,72,0.33,,,0.81,WUHU216HW,2013-01-21 07:28:00,
2013-01-21 02:30:00,20.3,12.7,29.47,SW,225,3.4,5.6,72,0.33,,,0.81,WUHU216HW,2013-01-21 07:30:00,
2013-01-21 02:32:00,20.3,12.7,29.47,SW,225,2.9,6.7,72,0.33,,,0.81,WUHU216HW,2013-01-21 07:32:00,
2013-01-21 02:33:00,20.3,12.7,29.47,WSW,248,4.0,6.7,72,0.33,,,0.81,WUHU216HW,2013-01-21 07:33:00,
2013-01-21 02:36:00,20.3,13.0,29.47,West,270,2.5,6.7,73,0.33,,,0.81,WUHU216HW,2013-01-21 07:36:00,
2013-01-21 02:37:00,20.3,13.0,29.47,West,270,5.4,6.7,73,0.33,,,0.81,WUHU216HW,2013-01-21 07:37:00,
2013-01-21 02:38:00,20.5,13.1,29.47,WSW,248,1.8,6.7,73,0.33,,,0.81,WUHU216HW,2013-01-21 07:38:00,
2013-01-21 02:42:00,20.3,13.0,29.47,West,270,1.8,6.7,73,0.33,,,0.81,WUHU216HW,2013-01-21 07:42:00,
2013-01-21 02:43:00,20.3,13.0,29.47,NW,315,3.8,5.4,73,0.33,,,0.81,WUHU216HW,2013-01-21 07:43:00,
2013-01-21 02:47:00,20.2,13.2,29.47,NW,315,4.5,5.4,74,0.33,,,0.81,WUHU216HW,2013-01-21 07:47:00,
2013-01-21 02:48:00,20.2,13.2,29.47,West,270,1.6,5.4,74,0.33,,,0.81,WUHU216HW,2013-01-21 07:48:00,
2013-01-21 02:53:00,20.2,12.8,29.48,WSW,248,1.1,5.4,73,0.33,,,0.81,WUHU216HW,2013-01-21 07:53:00,
2013-01-21 02:58:00,20.2,13.2,29.47,SW,225,1.1,4.7,74,0.33,,,0.81,WUHU216HW,2013-01-21 07:58:00,
2013-01-21 02:59:00,20.2,13.2,29.47,SW,225,0.4,3.6,74,0.33,,,0.81,WUHU216HW,2013-01-21 07:59:00,
2013-01-21 03:03:00,20.2,13.4,29.47,SSW,203,2.2,4.3,75,0.16,,,0.97,WUHU216HW,2013-01-21 08:03:00,
2013-01-21 03:04:00,20.2,13.2,29.47,SW,225,1.3,4.3,74,0.16,,,0.97,WUHU216HW,2013-01-21 08:04:00,
2013-01-21 03:08:00,20.2,13.4,29.47,SSW,203,1.1,4.5,75,0.16,,,0.97,WUHU216HW,2013-01-21 08:08:00,
2013-01-21 03:09:00,20.2,13.2,29.47,SSE,158,1.1,4.5,74,0.16,,,0.97,WUHU216HW,2013-01-21 08:09:00,
2013-01-21 03:13:00,20.2,13.2,29.47,SSW,203,3.4,4.5,74,0.16,,,0.97,WUHU216HW,2013-01-21 08:13:00,
2013-01-21 03:14:00,20.2,13.2,29.47,SSW,203,3.4,4.5,74,0.16,,,0.97,WUHU216HW,2013-01-21 08:14:00,
2013-01-21 03:18:00,20.0,13.0,29.47,SSW,203,1.1,3.8,74,0.16,,,0.97,WUHU216HW,2013-01-21 08:18:00,
2013-01-21 03:19:00,20.0,13.0,29.47,SSW,203,0.7,3.8,74,0.16,,,0.97,WUHU216HW,2013-01-21 08:19:00,
2013-01-21 03:24:00,20.2,13.7,29.47,South,180,2.9,3.8,76,0.16,,,0.97,WUHU216HW,2013-01-21 08:24:00,
2013-01-21 03:29:00,20.0,13.5,29.47,SW,225,0.2,5.4,76,0.16,,,0.97,WUHU216HW,2013-01-21 08:29:00,
2013-01-21 03:30:00,20.0,13.2,29.47,SW,225,0.4,5.4,75,0.16,,,0.97,WUHU216HW,2013-01-21 08:30:00,
2013-01-21 03:34:00,20.0,13.2,29.46,WSW,248,0.7,5.4,75,0.16,,,0.97,WUHU216HW,2013-01-21 08:34:00,
2013-01-21 03:35:00,20.0,13.2,29.46,SW,225,1.8,3.8,75,0.16,,,0.97,WUHU216HW,2013-01-21 08:35:00,
2013-01-21 03:39:00,20.0,13.2,29.46,SW,225,2.0,4.0,75,0.16,,,0.97,WUHU216HW,2013-01-21 08:39:00,
2013-01-21 03:40:00,20.0,13.2,29.46,SW,225,4.0,4.0,75,0.16,,,0.97,WUHU216HW,2013-01-21 08:40:00,
2013-01-21 03:44:00,20.0,13.2,29.46,SSE,158,3.6,4.3,75,0.16,,,0.97,WUHU216HW,2013-01-21 08:44:00,
2013-01-21 03:45:00,19.8,13.1,29.46,WSW,248,4.0,4.3,75,0.16,,,0.97,WUHU216HW,2013-01-21 08:45:00,
2013-01-21 03:49:00,19.8,12.8,29.46,South,180,4.3,4.3,74,0.16,,,0.97,WUHU216HW,2013-01-21 08:49:00,
2013-01-21 03:50:00,19.8,12.8,29.46,West,270,4.5,4.5,74,0.16,,,0.97,WUHU216HW,2013-01-21 08:50:00,
2013-01-21 03:54:00,19.8,13.1,29.46,West,270,2.2,4.5,75,0.16,,,0.97,WUHU216HW,2013-01-21 08:54:00,
2013-01-21 03:55:00,19.8,13.1,29.46,West,270,0.4,4.5,75,0.16,,,0.97,WUHU216HW,2013-01-21 08:55:00,
2013-01-21 03:56:00,19.8,13.1,29.46,NNW,338,2.9,4.5,75,0.16,,,0.97,WUHU216HW,2013-01-21 08:56:00,
2013-01-21 03:59:00,19.8,13.1,29.46,SSW,203,1.8,4.5,75,0.16,,,0.97,WUHU216HW,2013-01-21 08:59:00,
2013-01-21 04:00:00,19.8,13.1,29.45,SSE,158,1.1,4.3,75,0.16,,,1.13,WUHU216HW,2013-01-21 09:00:00,
2013-01-21 04:01:00,19.8,13.1,29.46,WSW,248,3.1,4.3,75,0.16,,,1.13,WUHU216HW,2013-01-21 09:01:00,
2013-01-21 04:04:00,19.8,12.8,29.46,SW,225,2.0,4.3,74,0.16,,,1.13,WUHU216HW,2013-01-21 09:04:00,
2013-01-21 04:06:00,19.8,12.8,29.46,West,270,3.4,7.6,74,0.16,,,1.13,WUHU216HW,2013-01-21 09:06:00,
2013-01-21 04:09:00,19.8,12.8,29.46,WSW,248,3.4,7.6,74,0.16,,,1.13,WUHU216HW,2013-01-21 09:09:00,
2013-01-21 04:11:00,19.6,12.6,29.45,South,180,5.1,7.6,74,0.16,,,1.13,WUHU216HW,2013-01-21 09:11:00,
2013-01-21 04:12:00,19.6,12.9,29.45,WSW,248,2.9,7.6,75,0.16,,,1.13,WUHU216HW,2013-01-21 09:12:00,
2013-01-21 04:15:00,19.8,12.8,29.45,WNW,293,2.5,7.6,74,0.16,,,1.13,WUHU216HW,2013-01-21 09:15:00,
2013-01-21 04:16:00,19.8,13.1,29.45,West,270,4.3,7.4,75,0.16,,,1.13,WUHU216HW,2013-01-21 09:16:00,
2013-01-21 04:17:00,19.8,13.1,29.45,WSW,248,1.1,7.4,75,0.16,,,1.13,WUHU216HW,2013-01-21 09:17:00,
2013-01-21 04:20:00,19.8,13.1,29.45,WSW,248,3.8,5.1,75,0.16,,,1.13,WUHU216HW,2013-01-21 09:20:00,
2013-01-21 04:21:00,19.8,12.8,29.45,WSW,248,3.8,4.7,74,0.16,,,1.13,WUHU216HW,2013-01-21 09:21:00,
2013-01-21 04:22:00,19.8,12.8,29.45,SW,225,3.1,4.7,74,0.16,,,1.13,WUHU216HW,2013-01-21 09:22:00,
2013-01-21 04:25:00,19.8,12.8,29.45,WSW,248,0.7,4.7,74,0.16,,,1.13,WUHU216HW,2013-01-21 09:25:00,
2013-01-21 04:26:00,19.8,12.8,29.45,WSW,248,2.7,4.7,74,0.16,,,1.13,WUHU216HW,2013-01-21 09:26:00,
2013-01-21 04:27:00,19.8,12.8,29.45,WSW,248,1.6,4.7,74,0.16,,,1.13,WUHU216HW,2013-01-21 09:27:00,
2013-01-21 04:30:00,19.8,12.8,29.45,WNW,293,0.9,4.0,74,0.16,,,1.13,WUHU216HW,2013-01-21 09:30:00,
2013-01-21 04:31:00,19.8,12.8,29.45,SW,225,2.5,4.0,74,0.16,,,1.13,WUHU216HW,2013-01-21 09:31:00,
2013-01-21 04:32:00,19.8,12.8,29.44,WSW,248,2.0,4.0,74,0.16,,,1.13,WUHU216HW,2013-01-21 09:32:00,
2013-01-21 04:33:00,19.8,12.8,29.44,SSW,203,2.9,4.0,74,0.16,,,1.13,WUHU216HW,2013-01-21 09:33:00,
2013-01-21 04:35:00,19.8,12.8,29.44,WSW,248,1.1,4.0,74,0.16,,,1.13,WUHU216HW,2013-01-21 09:35:00,
2013-01-21 04:36:00,19.8,12.8,29.44,WSW,248,3.6,4.9,74,0.16,,,1.13,WUHU216HW,2013-01-21 09:36:00,
2013-01-21 04:38:00,19.8,12.8,29.44,WNW,293,1.8,4.9,74,0.16,,,1.13,WUHU216HW,2013-01-21 09:38:00,
2013-01-21 04:40:00,19.8,12.4,29.44,SW,225,0.4,4.9,73,0.16,,,1.13,WUHU216HW,2013-01-21 09:40:00,
2013-01-21 04:42:00,19.8,12.4,29.44,SW,225,1.1,4.9,73,0.16,,,1.13,WUHU216HW,2013-01-21 09:42:00,
2013-01-21 04:43:00,19.8,12.4,29.44,SW,225,0.7,4.9,73,0.16,,,1.13,WUHU216HW,2013-01-21 09:43:00,
2013-01-21 04:45:00,19.8,12.4,29.44,WSW,248,3.4,4.9,73,0.16,,,1.13,WUHU216HW,2013-01-21 09:45:00,
2013-01-21 04:47:00,19.8,12.4,29.44,WSW,248,2.0,4.3,73,0.16,,,1.13,WUHU216HW,2013-01-21 09:47:00,
2013-01-21 04:48:00,19.8,12.4,29.44,SW,225,3.8,4.3,73,0.16,,,1.13,WUHU216HW,2013-01-21 09:48:00,
2013-01-21 04:50:00,19.8,12.4,29.44,SW,225,2.7,3.8,73,0.16,,,1.13,WUHU216HW,2013-01-21 09:50:00,
2013-01-21 04:52:00,19.8,12.4,29.44,South,180,2.5,3.8,73,0.16,,,1.13,WUHU216HW,2013-01-21 09:52:00,
2013-01-21 04:53:00,19.8,12.4,29.44,West,270,2.7,3.8,73,0.16,,,1.13,WUHU216HW,2013-01-21 09:53:00,
2013-01-21 04:54:00,19.8,12.4,29.44,SW,225,2.9,3.8,73,0.16,,,1.13,WUHU216HW,2013-01-21 09:54:00,
2013-01-21 04:55:00,19.8,12.4,29.44,SW,225,4.3,4.3,73,0.16,,,1.13,WUHU216HW,2013-01-21 09:55:00,
2013-01-21 04:57:00,19.8,12.4,29.44,WSW,248,2.0,4.3,73,0.16,,,1.13,WUHU216HW,2013-01-21 09:57:00,
2013-01-21 04:58:00,19.8,12.4,29.44,West,270,3.6,4.3,73,0.16,,,1.13,WUHU216HW,2013-01-21 09:58:00,
2013-01-21 04:59:00,19.8,12.4,29.44,West,270,3.6,4.3,73,0.16,,,1.13,WUHU216HW,2013-01-21 09:59:00,
2013-01-21 05:01:00,19.8,12.2,29.44,SW,225,2.9,4.3,72,0.17,,,1.30,WUHU216HW,2013-01-21 10:01:00,
2013-01-21 05:02:00,19.8,12.4,29.43,WSW,248,2.9,4.3,73,0.17,,,1.30,WUHU216HW,2013-01-21 10:02:00,
2013-01-21 05:04:00,19.8,12.4,29.43,SW,225,2.0,4.3,73,0.17,,,1.30,WUHU216HW,2013-01-21 10:04:00,
2013-01-21 05:06:00,19.8,12.4,29.44,West,270,1.8,4.0,73,0.17,,,1.30,WUHU216HW,2013-01-21 10:06:00,
2013-01-21 05:07:00,19.8,12.4,29.44,SSW,203,2.5,4.0,73,0.17,,,1.30,WUHU216HW,2013-01-21 10:07:00,
2013-01-21 05:09:00,19.8,12.2,29.44,WSW,248,1.1,4.0,72,0.17,,,1.30,WUHU216HW,2013-01-21 10:09:00,
2013-01-21 05:11:00,19.8,12.2,29.44,WNW,293,3.6,6.0,72,0.17,,,1.30,WUHU216HW,2013-01-21 10:11:00,
2013-01-21 05:12:00,19.6,12.0,29.44,SW,225,2.7,6.0,72,0.17,,,1.30,WUHU216HW,2013-01-21 10:12:00,
2013-01-21 05:14:00,19.6,12.0,29.44,WSW,248,0.9,6.0,72,0.17,,,1.30,WUHU216HW,2013-01-21 10:14:00,
2013-01-21 05:16:00,19.6,12.0,29.44,WSW,248,1.1,6.0,72,0.17,,,1.30,WUHU216HW,2013-01-21 10:16:00,
2013-01-21 05:18:00,19.6,12.0,29.43,West,270,2.2,6.0,72,0.17,,,1.30,WUHU216HW,2013-01-21 10:18:00,
2013-01-21 05:19:00,19.6,12.0,29.44,WSW,248,2.0,6.0,72,0.17,,,1.30,WUHU216HW,2013-01-21 10:19:00,
2013-01-21 05:22:00,19.6,12.0,29.44,WNW,293,2.9,5.6,72,0.17,,,1.30,WUHU216HW,2013-01-21 10:22:00,
2013-01-21 05:23:00,19.6,12.0,29.44,SW,225,3.6,5.6,72,0.17,,,1.30,WUHU216HW,2013-01-21 10:23:00,
2013-01-21 05:24:00,19.6,12.0,29.44,SW,225,0.4,5.6,72,0.17,,,1.30,WUHU216HW,2013-01-21 10:24:00,
2013-01-21 05:25:00,19.6,12.0,29.44,WSW,248,1.1,5.6,72,0.17,,,1.30,WUHU216HW,2013-01-21 10:25:00,
2013-01-21 05:27:00,19.6,12.0,29.44,SSW,203,2.5,5.6,72,0.17,,,1.30,WUHU216HW,2013-01-21 10:27:00,
2013-01-21 05:28:00,19.6,12.0,29.44,SW,225,2.0,5.6,72,0.17,,,1.30,WUHU216HW,2013-01-21 10:28:00,
2013-01-21 05:29:00,19.6,12.2,29.44,West,270,4.9,5.6,73,0.17,,,1.30,WUHU216HW,2013-01-21 10:29:00,
2013-01-21 05:30:00,19.6,12.2,29.44,SW,225,1.8,4.9,73,0.17,,,1.30,WUHU216HW,2013-01-21 10:30:00,
2013-01-21 05:32:00,19.6,12.0,29.44,West,270,3.4,4.9,72,0.17,,,1.30,WUHU216HW,2013-01-21 10:32:00,
2013-01-21 05:33:00,19.6,12.0,29.44,WSW,248,1.1,4.9,72,0.17,,,1.30,WUHU216HW,2013-01-21 10:33:00,
2013-01-21 05:34:00,19.6,12.0,29.44,SE,135,2.2,4.9,72,0.17,,,1.30,WUHU216HW,2013-01-21 10:34:00,
2013-01-21 05:35:00,19.6,12.2,29.44,West,270,2.0,4.9,73,0.17,,,1.30,WUHU216HW,2013-01-21 10:35:00,
2013-01-21 05:37:00,19.6,12.2,29.44,SSW,203,2.2,4.9,73,0.17,,,1.30,WUHU216HW,2013-01-21 10:37:00,
2013-01-21 05:38:00,19.6,12.2,29.44,SW,225,2.5,4.9,73,0.17,,,1.30,WUHU216HW,2013-01-21 10:38:00,
2013-01-21 05:39:00,19.6,12.2,29.44,SW,225,1.1,3.6,73,0.17,,,1.30,WUHU216HW,2013-01-21 10:39:00,
2013-01-21 05:40:00,19.6,12.0,29.44,WSW,248,1.8,3.6,72,0.17,,,1.30,WUHU216HW,2013-01-21 10:40:00,
2013-01-21 05:42:00,19.6,12.0,29.44,West,270,1.1,4.5,72,0.17,,,1.30,WUHU216HW,2013-01-21 10:42:00,
2013-01-21 05:43:00,19.6,12.0,29.44,WSW,248,2.7,4.5,72,0.17,,,1.30,WUHU216HW,2013-01-21 10:43:00,
2013-01-21 05:44:00,19.4,11.8,29.44,South,180,0.7,4.5,72,0.17,,,1.30,WUHU216HW,2013-01-21 10:44:00,
2013-01-21 05:46:00,19.6,12.0,29.44,SW,225,3.4,4.5,72,0.17,,,1.30,WUHU216HW,2013-01-21 10:46:00,
2013-01-21 05:47:00,19.6,12.0,29.44,SW,225,0.7,4.5,72,0.17,,,1.30,WUHU216HW,2013-01-21 10:47:00,
2013-01-21 05:48:00,19.6,12.0,29.44,SE,135,2.2,4.5,72,0.17,,,1.30,WUHU216HW,2013-01-21 10:48:00,
2013-01-21 05:49:00,19.6,12.0,29.44,West,270,4.3,4.7,72,0.17,,,1.30,WUHU216HW,2013-01-21 10:49:00,
2013-01-21 05:51:00,19.6,12.0,29.43,WSW,248,0.7,4.9,72,0.17,,,1.30,WUHU216HW,2013-01-21 10:51:00,
2013-01-21 05:53:00,19.4,11.8,29.43,NW,315,0.2,4.9,72,0.17,,,1.30,WUHU216HW,2013-01-21 10:53:00,
2013-01-21 05:54:00,19.4,11.8,29.44,SW,225,2.5,4.9,72,0.17,,,1.30,WUHU216HW,2013-01-21 10:54:00,
2013-01-21 05:56:00,19.6,12.0,29.43,WNW,293,2.5,4.9,72,0.17,,,1.30,WUHU216HW,2013-01-21 10:56:00,
2013-01-21 05:58:00,19.4,11.8,29.43,WSW,248,1.1,4.9,72,0.17,,,1.30,WUHU216HW,2013-01-21 10:58:00,
2013-01-21 05:59:00,19.4,11.8,29.43,WSW,248,1.8,4.9,72,0.17,,,1.30,WUHU216HW,2013-01-21 10:59:00,
2013-01-21 06:01:00,19.4,11.8,29.43,WNW,293,1.8,4.0,72,0.16,,,1.46,WUHU216HW,2013-01-21 11:01:00,
2013-01-21 06:03:00,19.4,11.8,29.43,West,270,1.8,3.6,72,0.16,,,1.46,WUHU216HW,2013-01-21 11:03:00,
2013-01-21 06:04:00,19.4,11.8,29.43,WNW,293,1.1,3.4,72,0.16,,,1.46,WUHU216HW,2013-01-21 11:04:00,
2013-01-21 06:07:00,19.4,11.8,29.43,SSW,203,2.5,3.4,72,0.16,,,1.46,WUHU216HW,2013-01-21 11:07:00,
2013-01-21 06:08:00,19.4,12.1,29.43,SW,225,0.9,4.0,73,0.16,,,1.46,WUHU216HW,2013-01-21 11:08:00,
2013-01-21 06:09:00,19.4,12.1,29.43,SW,225,0.9,4.0,73,0.16,,,1.46,WUHU216HW,2013-01-21 11:09:00,
2013-01-21 06:10:00,19.4,12.1,29.43,SW,225,3.6,4.0,73,0.16,,,1.46,WUHU216HW,2013-01-21 11:10:00,
2013-01-21 06:13:00,19.4,11.8,29.43,WSW,248,2.2,4.0,72,0.16,,,1.46,WUHU216HW,2013-01-21 11:13:00,
2013-01-21 06:14:00,19.4,11.8,29.43,West,270,1.8,4.0,72,0.16,,,1.46,WUHU216HW,2013-01-21 11:14:00,
2013-01-21 06:15:00,19.4,11.8,29.43,West,270,3.4,4.0,72,0.16,,,1.46,WUHU216HW,2013-01-21 11:15:00,
2013-01-21 06:18:00,19.4,11.8,29.43,SW,225,0.4,4.0,72,0.16,,,1.46,WUHU216HW,2013-01-21 11:18:00,
2013-01-21 06:19:00,19.4,11.8,29.43,WSW,248,1.8,4.0,72,0.16,,,1.46,WUHU216HW,2013-01-21 11:19:00,
2013-01-21 06:20:00,19.4,11.8,29.43,SE,135,0.7,4.0,72,0.16,,,1.46,WUHU216HW,2013-01-21 11:20:00,
2013-01-21 06:23:00,19.4,11.8,29.43,WNW,293,1.3,3.6,72,0.16,,,1.46,WUHU216HW,2013-01-21 11:23:00,
2013-01-21 06:24:00,19.4,11.8,29.43,SSE,158,3.4,3.6,72,0.16,,,1.46,WUHU216HW,2013-01-21 11:24:00,
2013-01-21 06:25:00,19.4,11.8,29.43,SSW,203,1.8,3.6,72,0.16,,,1.46,WUHU216HW,2013-01-21 11:25:00,
2013-01-21 06:28:00,19.3,11.6,29.43,West,270,1.6,3.4,72,0.16,,,1.46,WUHU216HW,2013-01-21 11:28:00,
2013-01-21 06:29:00,19.4,11.8,29.43,West,270,0.7,3.4,72,0.16,,,1.46,WUHU216HW,2013-01-21 11:29:00,
2013-01-21 06:30:00,19.4,11.8,29.43,SSE,158,0.9,3.4,72,0.16,,,1.46,WUHU216HW,2013-01-21 11:30:00,
2013-01-21 06:33:00,19.4,11.8,29.43,SW,225,1.6,4.0,72,0.16,,,1.46,WUHU216HW,2013-01-21 11:33:00,
2013-01-21 06:34:00,19.4,11.8,29.43,WSW,248,4.0,4.7,72,0.16,,,1.46,WUHU216HW,2013-01-21 11:34:00,
2013-01-21 06:35:00,19.4,11.8,29.43,SW,225,4.7,4.7,72,0.16,,,1.46,WUHU216HW,2013-01-21 11:35:00,
2013-01-21 06:39:00,19.4,11.8,29.43,WSW,248,1.8,4.7,72,0.16,,,1.46,WUHU216HW,2013-01-21 11:39:00,
2013-01-21 06:40:00,19.4,11.8,29.43,WSW,248,0.4,4.7,72,0.16,,,1.46,WUHU216HW,2013-01-21 11:40:00,
2013-01-21 06:44:00,19.6,12.0,29.43,WSW,248,1.1,4.7,72,0.16,,,1.46,WUHU216HW,2013-01-21 11:44:00,
2013-01-21 06:45:00,19.6,12.0,29.43,WSW,248,0.7,4.7,72,0.16,,,1.46,WUHU216HW,2013-01-21 11:45:00,
2013-01-21 06:46:00,19.6,12.0,29.43,NE,45,2.0,3.6,72,0.16,,,1.46,WUHU216HW,2013-01-21 11:46:00,
2013-01-21 06:49:00,19.6,12.0,29.43,WSW,248,1.3,3.6,72,0.16,,,1.46,WUHU216HW,2013-01-21 11:49:00,
2013-01-21 06:50:00,19.6,12.0,29.43,SSW,203,0.4,3.6,72,0.16,,,1.46,WUHU216HW,2013-01-21 11:50:00,
2013-01-21 06:51:00,19.6,12.0,29.43,SSW,203,0.0,3.6,72,0.16,,,1.46,WUHU216HW,2013-01-21 11:51:00,
2013-01-21 06:54:00,19.6,11.6,29.43,SSW,203,1.1,2.9,71,0.16,,,1.46,WUHU216HW,2013-01-21 11:54:00,
2013-01-21 06:55:00,19.6,11.6,29.43,SW,225,1.1,2.9,71,0.16,,,1.46,WUHU216HW,2013-01-21 11:55:00,
2013-01-21 06:56:00,19.8,11.8,29.43,WSW,248,1.1,2.7,71,0.16,,,1.46,WUHU216HW,2013-01-21 11:56:00,
2013-01-21 06:59:00,19.8,11.8,29.43,WSW,248,4.0,4.0,71,0.16,,,1.46,WUHU216HW,2013-01-21 11:59:00,
2013-01-21 07:00:00,19.8,11.8,29.43,WSW,248,1.1,4.0,71,0.16,,,1.46,WUHU216HW,2013-01-21 12:00:00,
2013-01-21 07:01:00,19.8,11.8,29.43,SSW,203,1.1,4.0,71,0.16,,,1.62,WUHU216HW,2013-01-21 12:01:00,
2013-01-21 07:04:00,19.8,11.8,29.43,WSW,248,0.7,4.0,71,0.16,,,1.62,WUHU216HW,2013-01-21 12:04:00,
2013-01-21 07:05:00,19.8,11.8,29.43,WSW,248,0.7,4.0,71,0.16,,,1.62,WUHU216HW,2013-01-21 12:05:00,
2013-01-21 07:07:00,19.6,11.6,29.43,WSW,248,1.8,4.7,71,0.16,,,1.62,WUHU216HW,2013-01-21 12:07:00,
2013-01-21 07:10:00,19.6,11.6,29.43,SSW,203,1.8,4.7,71,0.16,,,1.62,WUHU216HW,2013-01-21 12:10:00,
2013-01-21 07:12:00,19.6,11.6,29.43,SSW,203,2.5,4.7,71,0.16,,,1.62,WUHU216HW,2013-01-21 12:12:00,
2013-01-21 07:15:00,19.4,11.4,29.42,SSW,203,0.7,4.7,71,0.16,,,1.62,WUHU216HW,2013-01-21 12:15:00,
2013-01-21 07:17:00,19.6,11.6,29.42,WSW,248,2.7,3.4,71,0.16,,,1.62,WUHU216HW,2013-01-21 12:17:00,
2013-01-21 07:20:00,19.6,11.6,29.43,SSW,203,2.9,3.4,71,0.16,,,1.62,WUHU216HW,2013-01-21 12:20:00,
2013-01-21 07:22:00,19.6,11.6,29.43,WSW,248,2.0,3.4,71,0.16,,,1.62,WUHU216HW,2013-01-21 12:22:00,
2013-01-21 07:25:00,19.6,11.6,29.42,West,270,4.3,4.3,71,0.16,,,1.62,WUHU216HW,2013-01-21 12:25:00,
2013-01-21 07:27:00,19.6,11.3,29.42,SSW,203,2.5,4.3,70,0.16,,,1.62,WUHU216HW,2013-01-21 12:27:00,
2013-01-21 07:30:00,19.6,11.3,29.42,SW,225,3.6,5.1,70,0.16,,,1.62,WUHU216HW,2013-01-21 12:30:00,
2013-01-21 07:32:00,19.4,11.2,29.42,SSW,203,0.9,5.6,70,0.16,,,1.62,WUHU216HW,2013-01-21 12:32:00,
2013-01-21 07:35:00,19.4,11.2,29.42,SW,225,3.1,5.6,70,0.16,,,1.62,WUHU216HW,2013-01-21 12:35:00,
2013-01-21 07:36:00,19.4,11.2,29.42,WSW,248,2.0,5.6,70,0.16,,,1.62,WUHU216HW,2013-01-21 12:36:00,
2013-01-21 07:37:00,19.4,11.2,29.42,SSW,203,1.8,5.6,70,0.16,,,1.62,WUHU216HW,2013-01-21 12:37:00,
2013-01-21 07:40:00,19.4,11.2,29.42,WSW,248,1.8,4.0,70,0.16,,,1.62,WUHU216HW,2013-01-21 12:40:00,
2013-01-21 07:41:00,19.4,10.8,29.42,SSW,203,1.6,4.0,69,0.16,,,1.62,WUHU216HW,2013-01-21 12:41:00,
2013-01-21 07:42:00,19.4,10.8,29.42,WSW,248,1.3,4.0,69,0.16,,,1.62,WUHU216HW,2013-01-21 12:42:00,
2013-01-21 07:45:00,19.4,11.2,29.42,WSW,248,2.2,4.0,70,0.16,,,1.62,WUHU216HW,2013-01-21 12:45:00,
2013-01-21 07:46:00,19.4,11.2,29.42,West,270,2.5,4.0,70,0.16,,,1.62,WUHU216HW,2013-01-21 12:46:00,
2013-01-21 07:48:00,19.4,10.8,29.42,West,270,1.8,4.0,69,0.16,,,1.62,WUHU216HW,2013-01-21 12:48:00,
2013-01-21 07:50:00,19.4,10.8,29.42,SSW,203,2.5,3.6,69,0.16,,,1.62,WUHU216HW,2013-01-21 12:50:00,
2013-01-21 07:51:00,19.4,10.8,29.42,SW,225,2.2,3.6,69,0.16,,,1.62,WUHU216HW,2013-01-21 12:51:00,
2013-01-21 07:53:00,19.4,10.8,29.42,WSW,248,2.7,5.1,69,0.16,,,1.62,WUHU216HW,2013-01-21 12:53:00,
2013-01-21 07:55:00,19.4,10.8,29.42,SSW,203,3.4,5.1,69,0.16,,,1.62,WUHU216HW,2013-01-21 12:55:00,
2013-01-21 07:56:00,19.4,10.8,29.42,South,180,6.3,6.3,69,0.16,,,1.62,WUHU216HW,2013-01-21 12:56:00,
2013-01-21 07:58:00,19.3,10.6,29.42,West,270,2.0,6.3,69,0.16,,,1.62,WUHU216HW,2013-01-21 12:58:00,
2013-01-21 08:00:00,19.4,10.8,29.42,WSW,248,2.0,6.3,69,0.16,,,1.78,WUHU216HW,2013-01-21 13:00:00,
2013-01-21 08:01:00,19.3,10.6,29.42,SE,135,1.3,6.3,69,0.16,,,1.78,WUHU216HW,2013-01-21 13:01:00,
2013-01-21 08:03:00,19.3,10.6,29.42,SW,225,2.5,6.3,69,0.16,,,1.78,WUHU216HW,2013-01-21 13:03:00,
2013-01-21 08:06:00,19.4,10.8,29.41,SSW,203,0.7,6.3,69,0.16,,,1.78,WUHU216HW,2013-01-21 13:06:00,
2013-01-21 08:08:00,19.3,10.4,29.42,SW,225,0.4,6.0,68,0.16,,,1.78,WUHU216HW,2013-01-21 13:08:00,
2013-01-21 08:11:00,19.3,10.6,29.42,WSW,248,3.4,6.0,69,0.16,,,1.78,WUHU216HW,2013-01-21 13:11:00,
2013-01-21 08:13:00,19.1,10.2,29.42,SW,225,0.4,6.0,68,0.16,,,1.78,WUHU216HW,2013-01-21 13:13:00,
2013-01-21 08:16:00,19.1,10.5,29.41,SW,225,2.7,6.0,69,0.16,,,1.78,WUHU216HW,2013-01-21 13:16:00,
2013-01-21 08:18:00,19.1,10.5,29.42,NW,315,3.1,4.5,69,0.16,,,1.78,WUHU216HW,2013-01-21 13:18:00,
2013-01-21 08:21:00,19.3,10.6,29.42,SW,225,2.0,4.5,69,0.16,,,1.78,WUHU216HW,2013-01-21 13:21:00,
2013-01-21 08:22:00,19.3,10.6,29.41,SW,225,1.3,4.3,69,0.16,,,1.78,WUHU216HW,2013-01-21 13:22:00,
2013-01-21 08:23:00,19.3,10.6,29.42,SSW,203,0.4,4.3,69,0.16,,,1.78,WUHU216HW,2013-01-21 13:23:00,
2013-01-21 08:26:00,19.4,10.8,29.42,SW,225,3.1,3.6,69,0.16,,,1.78,WUHU216HW,2013-01-21 13:26:00,
2013-01-21 08:27:00,19.4,10.8,29.42,WSW,248,1.8,3.6,69,0.16,,,1.78,WUHU216HW,2013-01-21 13:27:00,
2013-01-21 08:28:00,19.4,10.8,29.42,SSE,158,3.4,3.6,69,0.16,,,1.78,WUHU216HW,2013-01-21 13:28:00,
2013-01-21 08:31:00,19.4,10.8,29.42,WSW,248,1.8,4.7,69,0.16,,,1.78,WUHU216HW,2013-01-21 13:31:00,
2013-01-21 08:32:00,19.4,10.4,29.42,West,270,1.8,7.2,68,0.16,,,1.78,WUHU216HW,2013-01-21 13:32:00,
2013-01-21 08:33:00,19.4,10.8,29.42,WSW,248,2.2,7.2,69,0.16,,,1.78,WUHU216HW,2013-01-21 13:33:00,
2013-01-21 08:36:00,19.4,10.4,29.42,SSW,203,2.0,7.2,68,0.16,,,1.78,WUHU216HW,2013-01-21 13:36:00,
2013-01-21 08:37:00,19.4,10.8,29.42,SSW,203,4.0,7.2,69,0.16,,,1.78,WUHU216HW,2013-01-21 13:37:00,
2013-01-21 08:39:00,19.3,10.6,29.42,SW,225,2.2,7.2,69,0.16,,,1.78,WUHU216HW,2013-01-21 13:39:00,
2013-01-21 08:41:00,19.4,10.8,29.41,South,180,2.9,5.4,69,0.16,,,1.78,WUHU216HW,2013-01-21 13:41:00,
2013-01-21 08:42:00,19.4,10.8,29.41,South,180,1.3,5.4,69,0.16,,,1.78,WUHU216HW,2013-01-21 13:42:00,
2013-01-21 08:44:00,19.4,10.8,29.41,WSW,248,0.9,4.5,69,0.16,,,1.78,WUHU216HW,2013-01-21 13:44:00,
2013-01-21 08:46:00,19.4,10.4,29.41,SW,225,4.0,4.5,68,0.16,,,1.78,WUHU216HW,2013-01-21 13:46:00,
2013-01-21 08:47:00,19.4,10.4,29.41,WSW,248,4.3,4.5,68,0.16,,,1.78,WUHU216HW,2013-01-21 13:47:00,
2013-01-21 08:49:00,19.4,10.4,29.41,SW,225,2.7,5.4,68,0.16,,,1.78,WUHU216HW,2013-01-21 13:49:00,
2013-01-21 08:52:00,19.4,10.4,29.41,WSW,248,1.8,5.4,68,0.16,,,1.78,WUHU216HW,2013-01-21 13:52:00,
2013-01-21 08:54:00,19.4,10.8,29.41,WSW,248,0.4,5.4,69,0.16,,,1.78,WUHU216HW,2013-01-21 13:54:00,
2013-01-21 08:57:00,19.4,10.8,29.41,South,180,1.3,5.4,69,0.16,,,1.78,WUHU216HW,2013-01-21 13:57:00,
2013-01-21 08:58:00,19.4,10.8,29.41,SSW,203,1.8,5.4,69,0.16,,,1.78,WUHU216HW,2013-01-21 13:58:00,
2013-01-21 08:59:00,19.4,10.8,29.41,WSW,248,1.1,2.7,69,0.16,,,1.78,WUHU216HW,2013-01-21 13:59:00,
2013-01-21 09:02:00,19.6,10.6,29.41,SSE,158,1.8,3.6,68,0.17,,,1.95,WUHU216HW,2013-01-21 14:02:00,
2013-01-21 09:03:00,19.6,10.6,29.41,SSE,158,0.4,3.6,68,0.17,,,1.95,WUHU216HW,2013-01-21 14:03:00,
2013-01-21 09:04:00,19.6,11.0,29.42,SSW,203,3.4,4.0,69,0.17,,,1.95,WUHU216HW,2013-01-21 14:04:00,
2013-01-21 09:07:00,19.6,10.6,29.41,SW,225,2.7,5.4,68,0.17,,,1.95,WUHU216HW,2013-01-21 14:07:00,
2013-01-21 09:08:00,19.6,10.6,29.41,SSW,203,1.3,5.4,68,0.17,,,1.95,WUHU216HW,2013-01-21 14:08:00,
2013-01-21 09:09:00,19.6,10.6,29.41,WSW,248,2.0,5.4,68,0.17,,,1.95,WUHU216HW,2013-01-21 14:09:00,
2013-01-21 09:12:00,19.8,10.8,29.41,WSW,248,3.6,5.4,68,0.17,,,1.95,WUHU216HW,2013-01-21 14:12:00,
2013-01-21 09:13:00,19.8,10.8,29.41,SSW,203,2.9,5.4,68,0.17,,,1.95,WUHU216HW,2013-01-21 14:13:00,
2013-01-21 09:14:00,20.0,11.3,29.41,SW,225,4.0,5.4,69,0.17,,,1.95,WUHU216HW,2013-01-21 14:14:00,
2013-01-21 09:17:00,20.0,11.0,29.41,SSE,158,5.1,5.1,68,0.17,,,1.95,WUHU216HW,2013-01-21 14:17:00,
2013-01-21 09:18:00,20.0,11.0,29.41,SW,225,2.2,5.1,68,0.17,,,1.95,WUHU216HW,2013-01-21 14:18:00,
2013-01-21 09:20:00,20.0,10.7,29.41,West,270,2.7,5.1,67,0.17,,,1.95,WUHU216HW,2013-01-21 14:20:00,
2013-01-21 09:22:00,20.0,10.7,29.41,WNW,293,2.7,5.1,67,0.17,,,1.95,WUHU216HW,2013-01-21 14:22:00,
2013-01-21 09:23:00,20.0,10.7,29.41,SW,225,4.0,5.1,67,0.17,,,1.95,WUHU216HW,2013-01-21 14:23:00,
2013-01-21 09:25:00,20.0,10.7,29.41,SW,225,2.5,5.1,67,0.17,,,1.95,WUHU216HW,2013-01-21 14:25:00,
2013-01-21 09:28:00,20.0,10.7,29.41,WSW,248,2.9,4.5,67,0.17,,,1.95,WUHU216HW,2013-01-21 14:28:00,
2013-01-21 09:30:00,20.0,10.4,29.41,SSE,158,4.5,5.4,66,0.17,,,1.95,WUHU216HW,2013-01-21 14:30:00,
2013-01-21 09:33:00,20.0,10.4,29.40,SW,225,2.2,5.4,66,0.17,,,1.95,WUHU216HW,2013-01-21 14:33:00,
2013-01-21 09:36:00,20.2,10.5,29.41,WSW,248,2.0,5.4,66,0.17,,,1.95,WUHU216HW,2013-01-21 14:36:00,
2013-01-21 09:38:00,20.2,10.2,29.41,WSW,248,2.0,5.4,65,0.17,,,1.95,WUHU216HW,2013-01-21 14:38:00,
2013-01-21 09:41:00,20.2,10.5,29.41,SW,225,2.0,6.0,66,0.17,,,1.95,WUHU216HW,2013-01-21 14:41:00,
2013-01-21 09:43:00,20.2,10.2,29.41,WSW,248,4.5,6.0,65,0.17,,,1.95,WUHU216HW,2013-01-21 14:43:00,
2013-01-21 09:46:00,20.3,10.4,29.41,SW,225,3.4,6.0,65,0.17,,,1.95,WUHU216HW,2013-01-21 14:46:00,
2013-01-21 09:48:00,20.2,10.2,29.41,West,270,3.4,6.0,65,0.17,,,1.95,WUHU216HW,2013-01-21 14:48:00,
2013-01-21 09:51:00,20.3,10.4,29.41,SSW,203,1.1,5.8,65,0.17,,,1.95,WUHU216HW,2013-01-21 14:51:00,
2013-01-21 09:53:00,20.3,10.4,29.41,WSW,248,1.1,5.8,65,0.17,,,1.95,WUHU216HW,2013-01-21 14:53:00,
2013-01-21 09:56:00,20.5,10.5,29.41,SSE,158,1.8,5.8,65,0.17,,,1.95,WUHU216HW,2013-01-21 14:56:00,
2013-01-21 09:58:00,20.5,10.5,29.40,WSW,248,2.5,5.1,65,0.17,,,1.95,WUHU216HW,2013-01-21 14:58:00,
2013-01-21 10:01:00,20.5,10.5,29.40,SW,225,2.5,6.3,65,0.16,,,2.11,WUHU216HW,2013-01-21 15:01:00,
2013-01-21 10:03:00,20.5,10.5,29.40,West,270,3.4,6.3,65,0.16,,,2.11,WUHU216HW,2013-01-21 15:03:00,
2013-01-21 10:04:00,20.5,10.5,29.40,West,270,3.4,6.3,65,0.16,,,2.11,WUHU216HW,2013-01-21 15:04:00,
2013-01-21 10:06:00,20.5,10.5,29.40,West,270,2.2,6.3,65,0.16,,,2.11,WUHU216HW,2013-01-21 15:06:00,
2013-01-21 10:08:00,20.3,10.4,29.41,West,270,4.3,6.3,65,0.16,,,2.11,WUHU216HW,2013-01-21 15:08:00,
2013-01-21 10:09:00,20.3,10.4,29.41,SE,135,3.8,4.9,65,0.16,,,2.11,WUHU216HW,2013-01-21 15:09:00,
2013-01-21 10:11:00,20.3,10.4,29.40,WSW,248,5.4,5.4,65,0.16,,,2.11,WUHU216HW,2013-01-21 15:11:00,
2013-01-21 10:13:00,20.3,10.4,29.40,WNW,293,0.4,5.4,65,0.16,,,2.11,WUHU216HW,2013-01-21 15:13:00,
2013-01-21 10:14:00,20.3,10.4,29.40,WNW,293,0.4,5.4,65,0.16,,,2.11,WUHU216HW,2013-01-21 15:14:00,
2013-01-21 10:17:00,20.5,10.5,29.40,West,270,2.0,5.4,65,0.16,,,2.11,WUHU216HW,2013-01-21 15:17:00,
2013-01-21 10:18:00,20.5,10.5,29.40,South,180,1.1,5.4,65,0.16,,,2.11,WUHU216HW,2013-01-21 15:18:00,
2013-01-21 10:19:00,20.5,10.5,29.40,South,180,3.1,5.4,65,0.16,,,2.11,WUHU216HW,2013-01-21 15:19:00,
2013-01-21 10:22:00,20.7,10.7,29.40,South,180,5.8,5.8,65,0.16,,,2.11,WUHU216HW,2013-01-21 15:22:00,
2013-01-21 10:23:00,20.9,10.9,29.40,SSE,158,1.1,5.8,65,0.16,,,2.11,WUHU216HW,2013-01-21 15:23:00,
2013-01-21 10:24:00,20.9,10.9,29.40,West,270,4.3,5.8,65,0.16,,,2.11,WUHU216HW,2013-01-21 15:24:00,
2013-01-21 10:27:00,20.7,10.0,29.40,NW,315,2.5,5.8,63,0.16,,,2.11,WUHU216HW,2013-01-21 15:27:00,
2013-01-21 10:29:00,20.5,10.2,29.40,SSW,203,1.8,5.8,64,0.16,,,2.11,WUHU216HW,2013-01-21 15:29:00,
2013-01-21 10:30:00,20.5,10.2,29.39,NW,315,1.1,5.8,64,0.16,,,2.11,WUHU216HW,2013-01-21 15:30:00,
2013-01-21 10:32:00,20.7,10.4,29.39,WSW,248,4.7,5.4,64,0.16,,,2.11,WUHU216HW,2013-01-21 15:32:00,
2013-01-21 10:34:00,20.7,10.4,29.39,WSW,248,6.9,6.9,64,0.16,,,2.11,WUHU216HW,2013-01-21 15:34:00,
2013-01-21 10:35:00,20.7,10.4,29.39,WSW,248,2.5,6.9,64,0.16,,,2.11,WUHU216HW,2013-01-21 15:35:00,
2013-01-21 10:37:00,20.9,10.5,29.39,SW,225,2.0,6.9,64,0.16,,,2.11,WUHU216HW,2013-01-21 15:37:00,
2013-01-21 10:39:00,20.9,10.5,29.39,SW,225,2.5,6.9,64,0.16,,,2.11,WUHU216HW,2013-01-21 15:39:00,
2013-01-21 10:40:00,20.9,10.5,29.39,West,270,2.9,6.9,64,0.16,,,2.11,WUHU216HW,2013-01-21 15:40:00,
2013-01-21 10:42:00,21.1,10.7,29.39,WSW,248,1.6,6.9,64,0.16,,,2.11,WUHU216HW,2013-01-21 15:42:00,
2013-01-21 10:44:00,21.1,10.4,29.39,West,270,7.6,7.6,63,0.16,,,2.11,WUHU216HW,2013-01-21 15:44:00,
2013-01-21 10:45:00,21.1,10.4,29.39,WSW,248,5.1,7.6,63,0.16,,,2.11,WUHU216HW,2013-01-21 15:45:00,
2013-01-21 10:48:00,20.9,10.2,29.40,West,270,1.6,7.6,63,0.16,,,2.11,WUHU216HW,2013-01-21 15:48:00,
2013-01-21 10:49:00,20.9,10.2,29.39,West,270,3.4,7.6,63,0.16,,,2.11,WUHU216HW,2013-01-21 15:49:00,
2013-01-21 10:51:00,20.9,10.5,29.39,SSE,158,3.6,7.6,64,0.16,,,2.11,WUHU216HW,2013-01-21 15:51:00,
2013-01-21 10:53:00,21.1,10.7,29.39,West,270,1.1,7.6,64,0.16,,,2.11,WUHU216HW,2013-01-21 15:53:00,
2013-01-21 10:54:00,21.1,10.7,29.39,WSW,248,1.1,7.6,64,0.16,,,2.11,WUHU216HW,2013-01-21 15:54:00,
2013-01-21 10:56:00,21.1,10.4,29.39,WNW,293,3.8,6.3,63,0.16,,,2.11,WUHU216HW,2013-01-21 15:56:00,
2013-01-21 10:58:00,21.1,10.4,29.39,SW,225,1.8,5.4,63,0.16,,,2.11,WUHU216HW,2013-01-21 15:58:00,
2013-01-21 10:59:00,21.2,10.9,29.39,SW,225,2.0,5.4,64,0.16,,,2.11,WUHU216HW,2013-01-21 15:59:00,
2013-01-21 11:01:00,21.2,10.9,29.39,WSW,248,2.9,5.4,64,0.16,,,2.27,WUHU216HW,2013-01-21 16:01:00,
2013-01-21 11:03:00,21.4,11.1,29.39,SW,225,1.8,4.3,64,0.16,,,2.27,WUHU216HW,2013-01-21 16:03:00,
2013-01-21 11:04:00,21.4,11.1,29.39,SSW,203,0.4,4.7,64,0.16,,,2.27,WUHU216HW,2013-01-21 16:04:00,
2013-01-21 11:06:00,21.6,11.3,29.39,South,180,0.4,4.7,64,0.16,,,2.27,WUHU216HW,2013-01-21 16:06:00,
2013-01-21 11:08:00,21.8,11.4,29.39,West,270,2.2,4.7,64,0.16,,,2.27,WUHU216HW,2013-01-21 16:08:00,
2013-01-21 11:09:00,21.8,11.4,29.39,WSW,248,1.6,4.7,64,0.16,,,2.27,WUHU216HW,2013-01-21 16:09:00,
2013-01-21 11:10:00,22.0,11.3,29.39,West,270,3.8,4.7,63,0.16,,,2.27,WUHU216HW,2013-01-21 16:10:00,
2013-01-21 11:11:00,22.0,11.3,29.39,SSW,203,1.8,4.7,63,0.16,,,2.27,WUHU216HW,2013-01-21 16:11:00,
2013-01-21 11:13:00,21.8,10.4,29.38,WSW,248,4.0,4.7,61,0.16,,,2.27,WUHU216HW,2013-01-21 16:13:00,
2013-01-21 11:14:00,21.8,10.4,29.38,West,270,2.5,4.7,61,0.16,,,2.27,WUHU216HW,2013-01-21 16:14:00,
2013-01-21 11:15:00,21.8,10.4,29.38,South,180,2.2,4.7,61,0.16,,,2.27,WUHU216HW,2013-01-21 16:15:00,
2013-01-21 11:16:00,22.0,10.5,29.38,SW,225,4.0,5.1,61,0.16,,,2.27,WUHU216HW,2013-01-21 16:16:00,
2013-01-21 11:19:00,22.0,10.5,29.38,South,180,2.9,8.3,61,0.16,,,2.27,WUHU216HW,2013-01-21 16:19:00,
2013-01-21 11:20:00,22.0,10.5,29.38,WSW,248,2.2,8.3,61,0.16,,,2.27,WUHU216HW,2013-01-21 16:20:00,
2013-01-21 11:21:00,22.0,9.8,29.38,WSW,248,3.4,8.3,59,0.16,,,2.27,WUHU216HW,2013-01-21 16:21:00,
2013-01-21 11:24:00,22.0,9.8,29.37,West,270,1.8,8.3,59,0.16,,,2.27,WUHU216HW,2013-01-21 16:24:00,
2013-01-21 11:25:00,22.0,9.8,29.37,SSE,158,2.9,8.3,59,0.16,,,2.27,WUHU216HW,2013-01-21 16:25:00,
2013-01-21 11:26:00,22.0,9.8,29.37,WSW,248,4.0,8.3,59,0.16,,,2.27,WUHU216HW,2013-01-21 16:26:00,
2013-01-21 11:29:00,22.3,10.5,29.37,SW,225,0.7,8.5,60,0.16,,,2.27,WUHU216HW,2013-01-21 16:29:00,
2013-01-21 11:30:00,22.5,10.3,29.37,WSW,248,3.4,8.5,59,0.16,,,2.27,WUHU216HW,2013-01-21 16:30:00,
2013-01-21 11:31:00,22.5,9.9,29.37,SSW,203,3.4,8.5,58,0.16,,,2.27,WUHU216HW,2013-01-21 16:31:00,
2013-01-21 11:34:00,22.5,9.1,29.37,SSW,203,1.3,8.5,56,0.16,,,2.27,WUHU216HW,2013-01-21 16:34:00,
2013-01-21 11:35:00,22.5,9.5,29.37,WSW,248,2.0,8.5,57,0.16,,,2.27,WUHU216HW,2013-01-21 16:35:00,
2013-01-21 11:36:00,22.5,9.9,29.37,SW,225,2.5,8.5,58,0.16,,,2.27,WUHU216HW,2013-01-21 16:36:00,
2013-01-21 11:39:00,22.3,8.9,29.37,SW,225,4.9,7.4,56,0.16,,,2.27,WUHU216HW,2013-01-21 16:39:00,
2013-01-21 11:40:00,22.5,9.1,29.37,West,270,3.4,7.4,56,0.16,,,2.27,WUHU216HW,2013-01-21 16:40:00,
2013-01-21 11:41:00,22.3,9.3,29.37,WSW,248,5.4,7.4,57,0.16,,,2.27,WUHU216HW,2013-01-21 16:41:00,
2013-01-21 11:44:00,22.0,9.4,29.37,WSW,248,7.2,7.4,58,0.16,,,2.27,WUHU216HW,2013-01-21 16:44:00,
2013-01-21 11:45:00,22.0,9.4,29.37,WSW,248,0.9,7.4,58,0.16,,,2.27,WUHU216HW,2013-01-21 16:45:00,
2013-01-21 11:46:00,22.0,9.8,29.37,SW,225,1.3,7.4,59,0.16,,,2.27,WUHU216HW,2013-01-21 16:46:00,
2013-01-21 11:50:00,22.1,9.9,29.36,SSW,203,3.4,7.2,59,0.16,,,2.27,WUHU216HW,2013-01-21 16:50:00,
2013-01-21 11:51:00,22.1,9.9,29.36,SSW,203,6.3,7.2,59,0.16,,,2.27,WUHU216HW,2013-01-21 16:51:00,
2013-01-21 11:52:00,22.3,10.5,29.36,SW,225,5.6,7.2,60,0.16,,,2.27,WUHU216HW,2013-01-21 16:52:00,
2013-01-21 11:55:00,22.3,10.5,29.36,South,180,2.9,7.6,60,0.16,,,2.27,WUHU216HW,2013-01-21 16:55:00,
2013-01-21 11:56:00,22.5,10.7,29.36,WNW,293,4.3,7.6,60,0.16,,,2.27,WUHU216HW,2013-01-21 16:56:00,
2013-01-21 11:57:00,22.5,10.7,29.36,SSW,203,2.2,7.6,60,0.16,,,2.27,WUHU216HW,2013-01-21 16:57:00,
2013-01-21 12:00:00,22.5,11.1,29.35,WSW,248,4.9,7.6,61,0.16,,,2.43,WUHU216HW,2013-01-21 17:00:00,
2013-01-21 12:01:00,22.7,11.2,29.35,South,180,1.8,7.6,61,0.16,,,2.43,WUHU216HW,2013-01-21 17:01:00,
2013-01-21 12:02:00,22.7,11.2,29.35,SW,225,4.3,7.6,61,0.16,,,2.43,WUHU216HW,2013-01-21 17:02:00,
2013-01-21 12:05:00,22.9,11.3,29.35,WSW,248,3.8,6.9,61,0.16,,,2.43,WUHU216HW,2013-01-21 17:05:00,
2013-01-21 12:06:00,22.7,11.2,29.35,WSW,248,3.4,6.9,61,0.16,,,2.43,WUHU216HW,2013-01-21 17:06:00,
2013-01-21 12:07:00,22.7,11.2,29.35,West,270,5.4,6.9,61,0.16,,,2.43,WUHU216HW,2013-01-21 17:07:00,
2013-01-21 12:10:00,22.7,11.2,29.35,WSW,248,3.4,5.6,61,0.16,,,2.43,WUHU216HW,2013-01-21 17:10:00,
2013-01-21 12:11:00,22.7,11.5,29.35,WSW,248,2.5,5.6,62,0.16,,,2.43,WUHU216HW,2013-01-21 17:11:00,
2013-01-21 12:12:00,22.7,11.5,29.35,WSW,248,5.6,5.6,62,0.16,,,2.43,WUHU216HW,2013-01-21 17:12:00,
2013-01-21 12:15:00,22.9,12.1,29.34,WNW,293,1.1,5.6,63,0.16,,,2.43,WUHU216HW,2013-01-21 17:15:00,
2013-01-21 12:16:00,22.7,11.9,29.34,WSW,248,1.8,5.6,63,0.16,,,2.43,WUHU216HW,2013-01-21 17:16:00,
2013-01-21 12:17:00,22.7,11.9,29.34,SW,225,1.6,5.6,63,0.16,,,2.43,WUHU216HW,2013-01-21 17:17:00,
2013-01-21 12:20:00,22.7,12.6,29.34,NW,315,2.5,6.3,65,0.16,,,2.43,WUHU216HW,2013-01-21 17:20:00,
2013-01-21 12:21:00,22.7,12.6,29.34,SW,225,2.5,6.3,65,0.16,,,2.43,WUHU216HW,2013-01-21 17:21:00,
2013-01-21 12:22:00,22.7,13.0,29.34,WSW,248,3.8,7.2,66,0.16,,,2.43,WUHU216HW,2013-01-21 17:22:00,
2013-01-21 12:25:00,22.0,13.7,29.34,SSW,203,4.0,7.6,70,0.16,,,2.43,WUHU216HW,2013-01-21 17:25:00,
2013-01-21 12:26:00,21.8,13.5,29.34,WSW,248,7.2,7.6,70,0.16,,,2.43,WUHU216HW,2013-01-21 17:26:00,
2013-01-21 12:27:00,21.8,13.5,29.34,SW,225,3.4,7.6,70,0.16,,,2.43,WUHU216HW,2013-01-21 17:27:00,
2013-01-21 12:31:00,21.4,12.8,29.34,NNW,338,1.8,8.5,69,0.16,,,2.43,WUHU216HW,2013-01-21 17:31:00,
2013-01-21 12:32:00,21.4,12.8,29.34,SW,225,3.8,8.5,69,0.16,,,2.43,WUHU216HW,2013-01-21 17:32:00,
2013-01-21 12:33:00,21.2,12.2,29.34,SSW,203,2.5,8.5,68,0.16,,,2.43,WUHU216HW,2013-01-21 17:33:00,
2013-01-21 12:36:00,21.4,12.4,29.34,WSW,248,5.8,8.5,68,0.16,,,2.43,WUHU216HW,2013-01-21 17:36:00,
2013-01-21 12:37:00,21.4,12.4,29.34,NW,315,3.8,8.5,68,0.16,,,2.43,WUHU216HW,2013-01-21 17:37:00,
2013-01-21 12:38:00,21.6,12.2,29.34,WSW,248,0.7,7.2,67,0.16,,,2.43,WUHU216HW,2013-01-21 17:38:00,
2013-01-21 12:41:00,21.6,12.6,29.33,SSW,203,1.1,7.2,68,0.16,,,2.43,WUHU216HW,2013-01-21 17:41:00,
2013-01-21 12:42:00,21.8,12.8,29.33,SSW,203,3.6,7.2,68,0.16,,,2.43,WUHU216HW,2013-01-21 17:42:00,
2013-01-21 12:43:00,22.0,13.0,29.33,SW,225,2.5,7.2,68,0.16,,,2.43,WUHU216HW,2013-01-21 17:43:00,
2013-01-21 12:46:00,22.3,13.3,29.33,WSW,248,3.8,7.4,68,0.16,,,2.43,WUHU216HW,2013-01-21 17:46:00,
2013-01-21 12:48:00,22.1,13.5,29.33,SW,225,2.7,7.4,69,0.16,,,2.43,WUHU216HW,2013-01-21 17:48:00,
2013-01-21 12:49:00,22.1,13.5,29.33,West,270,2.5,7.4,69,0.16,,,2.43,WUHU216HW,2013-01-21 17:49:00,
2013-01-21 12:52:00,22.3,13.3,29.33,WSW,248,4.0,7.4,68,0.16,,,2.43,WUHU216HW,2013-01-21 17:52:00,
2013-01-21 12:53:00,22.5,13.5,29.32,SW,225,2.5,7.4,68,0.16,,,2.43,WUHU216HW,2013-01-21 17:53:00,
2013-01-21 12:54:00,22.3,13.7,29.32,West,270,6.9,7.4,69,0.16,,,2.43,WUHU216HW,2013-01-21 17:54:00,
2013-01-21 12:57:00,22.5,13.9,29.32,WSW,248,6.3,6.9,69,0.16,,,2.43,WUHU216HW,2013-01-21 17:57:00,
2013-01-21 12:58:00,22.3,13.7,29.32,SSE,158,3.6,6.9,69,0.16,,,2.43,WUHU216HW,2013-01-21 17:58:00,
2013-01-21 12:59:00,22.3,13.7,29.32,SSW,203,1.6,6.9,69,0.16,,,2.43,WUHU216HW,2013-01-21 17:59:00,
2013-01-21 13:02:00,22.3,13.7,29.32,WSW,248,1.3,6.9,69,0.17,,,2.60,WUHU216HW,2013-01-21 18:02:00,
2013-01-21 13:03:00,22.5,13.9,29.32,West,270,6.0,6.9,69,0.17,,,2.60,WUHU216HW,2013-01-21 18:03:00,
2013-01-21 13:04:00,22.5,14.2,29.32,WSW,248,3.6,6.5,70,0.17,,,2.60,WUHU216HW,2013-01-21 18:04:00,
2013-01-21 13:07:00,22.3,14.3,29.33,West,270,4.7,7.6,71,0.17,,,2.60,WUHU216HW,2013-01-21 18:07:00,
2013-01-21 13:08:00,22.1,14.1,29.33,SSE,158,3.6,7.6,71,0.17,,,2.60,WUHU216HW,2013-01-21 18:08:00,
2013-01-21 13:09:00,22.1,14.1,29.33,SSW,203,5.8,7.6,71,0.17,,,2.60,WUHU216HW,2013-01-21 18:09:00,
2013-01-21 13:12:00,22.3,13.7,29.32,West,270,6.3,7.6,69,0.17,,,2.60,WUHU216HW,2013-01-21 18:12:00,
2013-01-21 13:14:00,22.5,13.9,29.33,SW,225,8.3,8.3,69,0.17,,,2.60,WUHU216HW,2013-01-21 18:14:00,
2013-01-21 13:17:00,22.5,13.5,29.32,NW,315,5.8,8.3,68,0.17,,,2.60,WUHU216HW,2013-01-21 18:17:00,
2013-01-21 13:18:00,22.7,13.3,29.32,West,270,5.4,8.3,67,0.17,,,2.60,WUHU216HW,2013-01-21 18:18:00,
2013-01-21 13:19:00,22.7,13.3,29.32,WSW,248,2.2,8.3,67,0.17,,,2.60,WUHU216HW,2013-01-21 18:19:00,
2013-01-21 13:20:00,22.9,13.5,29.32,West,270,3.4,8.3,67,0.17,,,2.60,WUHU216HW,2013-01-21 18:20:00,
2013-01-21 13:23:00,23.2,13.5,29.32,SSW,203,2.9,8.3,66,0.17,,,2.60,WUHU216HW,2013-01-21 18:23:00,
2013-01-21 13:24:00,23.4,13.7,29.32,SSW,203,5.4,7.6,66,0.17,,,2.60,WUHU216HW,2013-01-21 18:24:00,
2013-01-21 13:25:00,23.4,12.6,29.32,WSW,248,6.9,8.5,63,0.17,,,2.60,WUHU216HW,2013-01-21 18:25:00,
2013-01-21 13:28:00,23.6,11.4,29.32,WSW,248,4.5,8.5,59,0.17,,,2.60,WUHU216HW,2013-01-21 18:28:00,
2013-01-21 13:29:00,23.6,11.4,29.32,NW,315,4.5,8.5,59,0.17,,,2.60,WUHU216HW,2013-01-21 18:29:00,
2013-01-21 13:30:00,23.6,10.5,29.32,WNW,293,3.4,8.5,57,0.17,,,2.60,WUHU216HW,2013-01-21 18:30:00,
2013-01-21 13:33:00,23.2,9.4,29.33,West,270,8.7,9.4,55,0.17,,,2.60,WUHU216HW,2013-01-21 18:33:00,
2013-01-21 13:34:00,23.0,9.2,29.33,West,270,6.7,10.3,55,0.17,,,2.60,WUHU216HW,2013-01-21 18:34:00,
2013-01-21 13:35:00,22.9,9.0,29.32,NNE,23,1.6,10.3,55,0.17,,,2.60,WUHU216HW,2013-01-21 18:35:00,
2013-01-21 13:38:00,22.7,8.8,29.32,South,180,4.7,10.3,55,0.17,,,2.60,WUHU216HW,2013-01-21 18:38:00,
2013-01-21 13:39:00,22.7,8.8,29.32,South,180,4.7,10.3,55,0.17,,,2.60,WUHU216HW,2013-01-21 18:39:00,
2013-01-21 13:41:00,22.7,9.3,29.32,West,270,2.0,10.3,56,0.17,,,2.60,WUHU216HW,2013-01-21 18:41:00,
2013-01-21 13:44:00,22.7,8.8,29.33,West,270,4.7,10.3,55,0.17,,,2.60,WUHU216HW,2013-01-21 18:44:00,
2013-01-21 13:46:00,22.7,8.8,29.33,West,270,4.0,10.3,55,0.17,,,2.60,WUHU216HW,2013-01-21 18:46:00,
2013-01-21 13:49:00,22.5,8.6,29.33,WSW,248,5.4,9.8,55,0.17,,,2.60,WUHU216HW,2013-01-21 18:49:00,
2013-01-21 13:51:00,22.5,9.1,29.33,SSE,158,5.8,9.8,56,0.17,,,2.60,WUHU216HW,2013-01-21 18:51:00,
2013-01-21 13:54:00,22.7,9.3,29.33,WSW,248,2.9,10.7,56,0.17,,,2.60,WUHU216HW,2013-01-21 18:54:00,
2013-01-21 13:56:00,22.7,9.3,29.33,WNW,293,0.9,10.7,56,0.17,,,2.60,WUHU216HW,2013-01-21 18:56:00,
2013-01-21 13:59:00,22.7,9.3,29.33,SW,225,6.3,10.7,56,0.17,,,2.60,WUHU216HW,2013-01-21 18:59:00,
2013-01-21 14:00:00,22.7,9.3,29.33,SW,225,4.0,10.7,56,0.16,,,2.76,WUHU216HW,2013-01-21 19:00:00,
2013-01-21 14:01:00,22.7,9.3,29.33,SSE,158,2.7,10.7,56,0.32,,,2.92,WUHU216HW,2013-01-21 19:01:00,
2013-01-21 14:04:00,22.7,8.8,29.33,NW,315,5.6,9.8,55,0.32,,,2.92,WUHU216HW,2013-01-21 19:04:00,
2013-01-21 14:05:00,22.7,8.8,29.33,NW,315,5.6,9.8,55,0.32,,,2.92,WUHU216HW,2013-01-21 19:05:00,
2013-01-21 14:06:00,22.7,8.8,29.33,WSW,248,2.9,9.8,55,0.32,,,2.92,WUHU216HW,2013-01-21 19:06:00,
2013-01-21 14:10:00,22.9,9.0,29.33,WSW,248,2.0,9.8,55,0.32,,,2.92,WUHU216HW,2013-01-21 19:10:00,
2013-01-21 14:11:00,22.9,9.5,29.33,SW,225,3.4,9.8,56,0.32,,,2.92,WUHU216HW,2013-01-21 19:11:00,
2013-01-21 14:15:00,22.9,9.0,29.34,WSW,248,4.0,8.7,55,0.32,,,2.92,WUHU216HW,2013-01-21 19:15:00,
2013-01-21 14:16:00,22.9,9.5,29.34,SE,135,3.4,8.7,56,0.32,,,2.92,WUHU216HW,2013-01-21 19:16:00,
2013-01-21 14:20:00,22.7,10.1,29.34,West,270,2.9,8.7,58,0.32,,,2.92,WUHU216HW,2013-01-21 19:20:00,
2013-01-21 14:21:00,22.5,9.9,29.34,NW,315,8.9,8.9,58,0.32,,,2.92,WUHU216HW,2013-01-21 19:21:00,
2013-01-21 14:25:00,21.8,9.6,29.34,NW,315,5.6,10.1,59,0.32,,,2.92,WUHU216HW,2013-01-21 19:25:00,
2013-01-21 14:26:00,22.0,9.8,29.34,NW,315,0.9,10.1,59,0.32,,,2.92,WUHU216HW,2013-01-21 19:26:00,
2013-01-21 14:30:00,22.1,9.5,29.34,NW,315,2.5,10.1,58,0.32,,,2.92,WUHU216HW,2013-01-21 19:30:00,
2013-01-21 14:31:00,22.1,9.5,29.34,NW,315,2.5,10.1,58,0.32,,,2.92,WUHU216HW,2013-01-21 19:31:00,
2013-01-21 14:32:00,22.1,9.5,29.33,NNE,23,2.5,10.1,58,0.32,,,2.92,WUHU216HW,2013-01-21 19:32:00,
2013-01-21 14:35:00,22.1,9.5,29.34,SW,225,1.1,8.3,58,0.32,,,2.92,WUHU216HW,2013-01-21 19:35:00,
2013-01-21 14:36:00,22.3,9.7,29.34,WSW,248,1.8,8.3,58,0.32,,,2.92,WUHU216HW,2013-01-21 19:36:00,
2013-01-21 14:37:00,22.3,9.7,29.34,NW,315,5.6,8.3,58,0.32,,,2.92,WUHU216HW,2013-01-21 19:37:00,
2013-01-21 14:41:00,22.3,9.7,29.33,SSW,203,5.1,8.3,58,0.32,,,2.92,WUHU216HW,2013-01-21 19:41:00,
2013-01-21 14:42:00,22.3,9.7,29.33,South,180,3.4,8.3,58,0.32,,,2.92,WUHU216HW,2013-01-21 19:42:00,
2013-01-21 14:46:00,22.3,9.3,29.33,WSW,248,5.4,9.2,57,0.32,,,2.92,WUHU216HW,2013-01-21 19:46:00,
2013-01-21 14:47:00,22.5,9.9,29.34,SSE,158,2.9,9.2,58,0.32,,,2.92,WUHU216HW,2013-01-21 19:47:00,
2013-01-21 14:51:00,22.7,10.1,29.33,WNW,293,6.9,9.2,58,0.32,,,2.92,WUHU216HW,2013-01-21 19:51:00,
2013-01-21 14:52:00,22.9,10.2,29.33,West,270,4.3,9.2,58,0.32,,,2.92,WUHU216HW,2013-01-21 19:52:00,
2013-01-21 14:56:00,22.9,9.8,29.34,WNW,293,3.6,7.8,57,0.32,,,2.92,WUHU216HW,2013-01-21 19:56:00,
2013-01-21 14:57:00,22.9,9.5,29.34,West,270,3.1,7.8,56,0.32,,,2.92,WUHU216HW,2013-01-21 19:57:00,
2013-01-21 15:01:00,22.7,8.8,29.34,West,270,1.8,8.5,55,0.17,,,3.09,WUHU216HW,2013-01-21 20:01:00,
2013-01-21 15:03:00,22.7,9.3,29.34,WSW,248,3.8,8.5,56,0.17,,,3.09,WUHU216HW,2013-01-21 20:03:00,
2013-01-21 15:04:00,22.7,9.3,29.34,NW,315,4.0,8.5,56,0.17,,,3.09,WUHU216HW,2013-01-21 20:04:00,
2013-01-21 15:06:00,22.7,9.6,29.34,SSW,203,4.0,8.5,57,0.17,,,3.09,WUHU216HW,2013-01-21 20:06:00,
2013-01-21 15:08:00,22.7,9.6,29.34,South,180,3.1,8.5,57,0.17,,,3.09,WUHU216HW,2013-01-21 20:08:00,
2013-01-21 15:09:00,22.7,9.6,29.34,West,270,4.3,8.5,57,0.17,,,3.09,WUHU216HW,2013-01-21 20:09:00,
2013-01-21 15:11:00,22.7,10.1,29.34,WSW,248,4.0,6.0,58,0.17,,,3.09,WUHU216HW,2013-01-21 20:11:00,
2013-01-21 15:13:00,22.7,10.1,29.34,WSW,248,4.7,5.4,58,0.17,,,3.09,WUHU216HW,2013-01-21 20:13:00,
2013-01-21 15:14:00,22.7,10.1,29.34,SW,225,4.9,5.4,58,0.17,,,3.09,WUHU216HW,2013-01-21 20:14:00,
2013-01-21 15:16:00,22.7,9.6,29.34,NW,315,2.9,5.8,57,0.17,,,3.09,WUHU216HW,2013-01-21 20:16:00,
2013-01-21 15:18:00,22.7,10.1,29.34,West,270,4.3,8.3,58,0.17,,,3.09,WUHU216HW,2013-01-21 20:18:00,
2013-01-21 15:19:00,22.7,9.6,29.34,SSW,203,0.9,8.3,57,0.17,,,3.09,WUHU216HW,2013-01-21 20:19:00,
2013-01-21 15:21:00,22.7,9.6,29.34,SSW,203,2.2,8.3,57,0.17,,,3.09,WUHU216HW,2013-01-21 20:21:00,
2013-01-21 15:22:00,22.7,9.6,29.34,SSW,203,2.2,8.3,57,0.17,,,3.09,WUHU216HW,2013-01-21 20:22:00,
2013-01-21 15:23:00,22.7,9.6,29.34,WSW,248,3.6,8.3,57,0.17,,,3.09,WUHU216HW,2013-01-21 20:23:00,
2013-01-21 15:24:00,22.7,9.6,29.34,SSW,203,3.1,8.3,57,0.17,,,3.09,WUHU216HW,2013-01-21 20:24:00,
2013-01-21 15:27:00,22.5,9.5,29.34,NW,315,1.1,5.8,57,0.17,,,3.09,WUHU216HW,2013-01-21 20:27:00,
2013-01-21 15:28:00,22.3,9.3,29.34,West,270,3.4,5.8,57,0.17,,,3.09,WUHU216HW,2013-01-21 20:28:00,
2013-01-21 15:29:00,22.5,9.5,29.34,SSE,158,4.7,5.8,57,0.17,,,3.09,WUHU216HW,2013-01-21 20:29:00,
2013-01-21 15:32:00,22.1,9.1,29.34,WNW,293,1.1,6.9,57,0.17,,,3.09,WUHU216HW,2013-01-21 20:32:00,
2013-01-21 15:33:00,22.0,9.4,29.35,WNW,293,6.3,9.2,58,0.17,,,3.09,WUHU216HW,2013-01-21 20:33:00,
2013-01-21 15:34:00,22.0,9.0,29.34,West,270,5.6,9.2,57,0.17,,,3.09,WUHU216HW,2013-01-21 20:34:00,
2013-01-21 15:37:00,21.4,8.5,29.34,WSW,248,3.6,9.2,57,0.17,,,3.09,WUHU216HW,2013-01-21 20:37:00,
2013-01-21 15:38:00,21.4,9.3,29.35,WSW,248,2.5,9.2,59,0.17,,,3.09,WUHU216HW,2013-01-21 20:38:00,
2013-01-21 15:39:00,21.4,9.7,29.34,NW,315,8.3,9.2,60,0.17,,,3.09,WUHU216HW,2013-01-21 20:39:00,
2013-01-21 15:42:00,21.2,9.5,29.35,WNW,293,2.5,9.2,60,0.17,,,3.09,WUHU216HW,2013-01-21 20:42:00,
2013-01-21 15:43:00,21.2,9.5,29.35,WSW,248,2.7,9.2,60,0.17,,,3.09,WUHU216HW,2013-01-21 20:43:00,
2013-01-21 15:44:00,21.2,9.5,29.34,SW,225,4.5,9.2,60,0.17,,,3.09,WUHU216HW,2013-01-21 20:44:00,
2013-01-21 15:47:00,21.2,9.5,29.35,WNW,293,7.8,8.7,60,0.17,,,3.09,WUHU216HW,2013-01-21 20:47:00,
2013-01-21 15:48:00,21.2,9.5,29.35,WSW,248,2.7,8.7,60,0.17,,,3.09,WUHU216HW,2013-01-21 20:48:00,
2013-01-21 15:50:00,21.6,10.2,29.35,WNW,293,3.1,8.7,61,0.17,,,3.09,WUHU216HW,2013-01-21 20:50:00,
2013-01-21 15:52:00,21.6,10.2,29.35,WSW,248,5.8,9.6,61,0.17,,,3.09,WUHU216HW,2013-01-21 20:52:00,
2013-01-21 15:53:00,21.4,10.1,29.35,West,270,6.9,9.6,61,0.17,,,3.09,WUHU216HW,2013-01-21 20:53:00,
2013-01-21 15:54:00,21.6,10.2,29.35,SSW,203,7.8,9.6,61,0.17,,,3.09,WUHU216HW,2013-01-21 20:54:00,
2013-01-21 15:55:00,21.8,10.4,29.35,South,180,4.0,9.6,61,0.17,,,3.09,WUHU216HW,2013-01-21 20:55:00,
2013-01-21 15:57:00,21.8,10.4,29.36,WSW,248,7.6,9.6,61,0.17,,,3.09,WUHU216HW,2013-01-21 20:57:00,
2013-01-21 15:58:00,21.8,10.4,29.36,WSW,248,4.5,9.6,61,0.17,,,3.09,WUHU216HW,2013-01-21 20:58:00,
2013-01-21 15:59:00,22.0,10.5,29.36,WSW,248,2.0,9.6,61,0.17,,,3.09,WUHU216HW,2013-01-21 20:59:00,
2013-01-21 16:00:00,22.0,9.8,29.36,NW,315,4.7,9.6,59,0.16,,,3.25,WUHU216HW,2013-01-21 21:00:00,
2013-01-21 16:03:00,22.0,9.0,29.36,West,270,1.3,8.5,57,0.16,,,3.25,WUHU216HW,2013-01-21 21:03:00,
2013-01-21 16:04:00,22.0,8.6,29.36,WSW,248,6.3,8.5,56,0.16,,,3.25,WUHU216HW,2013-01-21 21:04:00,
2013-01-21 16:05:00,21.6,7.8,29.36,SSW,203,10.1,12.5,55,0.16,,,3.25,WUHU216HW,2013-01-21 21:05:00,
2013-01-21 16:08:00,21.2,6.7,29.36,North,0,6.7,12.5,53,0.16,,,3.25,WUHU216HW,2013-01-21 21:08:00,
2013-01-21 16:09:00,21.2,6.7,29.36,West,270,6.5,12.5,53,0.16,,,3.25,WUHU216HW,2013-01-21 21:09:00,
2013-01-21 16:10:00,21.2,6.7,29.36,West,270,2.7,12.5,53,0.16,,,3.25,WUHU216HW,2013-01-21 21:10:00,
2013-01-21 16:13:00,21.2,9.1,29.36,WNW,293,3.6,12.5,59,0.16,,,3.25,WUHU216HW,2013-01-21 21:13:00,
2013-01-21 16:14:00,20.9,10.2,29.36,South,180,1.8,10.1,63,0.16,,,3.25,WUHU216HW,2013-01-21 21:14:00,
2013-01-21 16:15:00,20.5,10.2,29.36,West,270,4.7,10.1,64,0.16,,,3.25,WUHU216HW,2013-01-21 21:15:00,
2013-01-21 16:18:00,20.2,10.5,29.37,West,270,1.1,10.1,66,0.16,,,3.25,WUHU216HW,2013-01-21 21:18:00,
2013-01-21 16:19:00,20.0,10.7,29.37,NW,315,2.2,7.6,67,0.16,,,3.25,WUHU216HW,2013-01-21 21:19:00,
2013-01-21 16:21:00,19.8,10.8,29.37,West,270,4.0,7.6,68,0.16,,,3.25,WUHU216HW,2013-01-21 21:21:00,
2013-01-21 16:23:00,19.4,10.8,29.37,West,270,6.5,7.6,69,0.16,,,3.25,WUHU216HW,2013-01-21 21:23:00,
2013-01-21 16:24:00,19.4,10.8,29.37,WNW,293,3.6,7.6,69,0.16,,,3.25,WUHU216HW,2013-01-21 21:24:00,
2013-01-21 16:26:00,19.4,10.8,29.37,WSW,248,7.8,7.8,69,0.16,,,3.25,WUHU216HW,2013-01-21 21:26:00,
2013-01-21 16:28:00,19.3,10.6,29.37,NW,315,2.0,7.8,69,0.16,,,3.25,WUHU216HW,2013-01-21 21:28:00,
2013-01-21 16:29:00,19.3,11.0,29.37,NW,315,2.7,7.8,70,0.16,,,3.25,WUHU216HW,2013-01-21 21:29:00,
2013-01-21 16:31:00,19.1,11.7,29.37,NW,315,1.8,8.9,73,0.16,,,3.25,WUHU216HW,2013-01-21 21:31:00,
2013-01-21 16:33:00,19.1,12.3,29.37,WSW,248,0.4,8.9,75,0.16,,,3.25,WUHU216HW,2013-01-21 21:33:00,
2013-01-21 16:34:00,19.1,12.3,29.37,SW,225,2.2,8.9,75,0.16,,,3.25,WUHU216HW,2013-01-21 21:34:00,
2013-01-21 16:36:00,19.1,11.7,29.37,WNW,293,2.2,8.9,73,0.16,,,3.25,WUHU216HW,2013-01-21 21:36:00,
2013-01-21 16:38:00,19.1,12.1,29.37,West,270,4.9,8.9,74,0.16,,,3.25,WUHU216HW,2013-01-21 21:38:00,
2013-01-21 16:39:00,19.1,11.4,29.37,WSW,248,2.7,8.9,72,0.16,,,3.25,WUHU216HW,2013-01-21 21:39:00,
2013-01-21 16:40:00,19.1,11.4,29.37,NNW,338,5.1,8.9,72,0.16,,,3.25,WUHU216HW,2013-01-21 21:40:00,
2013-01-21 16:41:00,19.1,10.5,29.37,WNW,293,6.3,8.5,69,0.16,,,3.25,WUHU216HW,2013-01-21 21:41:00,
2013-01-21 16:43:00,18.9,9.0,29.37,WNW,293,2.9,8.9,65,0.16,,,3.25,WUHU216HW,2013-01-21 21:43:00,
2013-01-21 16:44:00,18.9,9.0,29.37,WSW,248,2.2,8.9,65,0.16,,,3.25,WUHU216HW,2013-01-21 21:44:00,
2013-01-21 16:45:00,18.9,9.0,29.37,WSW,248,3.1,8.9,65,0.16,,,3.25,WUHU216HW,2013-01-21 21:45:00,
2013-01-21 16:46:00,18.9,8.7,29.37,South,180,0.9,9.4,64,0.16,,,3.25,WUHU216HW,2013-01-21 21:46:00,
2013-01-21 16:48:00,18.9,8.7,29.37,South,180,3.8,11.2,64,0.16,,,3.25,WUHU216HW,2013-01-21 21:48:00,
2013-01-21 16:49:00,18.9,8.7,29.37,SSW,203,4.7,11.2,64,0.16,,,3.25,WUHU216HW,2013-01-21 21:49:00,
2013-01-21 16:50:00,18.9,9.0,29.37,WSW,248,6.7,11.2,65,0.16,,,3.25,WUHU216HW,2013-01-21 21:50:00,
2013-01-21 16:51:00,18.9,9.0,29.37,SSE,158,5.4,11.2,65,0.16,,,3.25,WUHU216HW,2013-01-21 21:51:00,
2013-01-21 16:54:00,18.9,9.0,29.37,WSW,248,6.3,11.6,65,0.16,,,3.25,WUHU216HW,2013-01-21 21:54:00,
2013-01-21 16:55:00,18.9,9.0,29.37,WSW,248,4.5,11.6,65,0.16,,,3.25,WUHU216HW,2013-01-21 21:55:00,
2013-01-21 16:57:00,18.9,9.0,29.37,NW,315,6.5,11.6,65,0.16,,,3.25,WUHU216HW,2013-01-21 21:57:00,
2013-01-21 16:59:00,18.5,7.3,29.37,SSE,158,3.6,11.6,61,0.16,,,3.25,WUHU216HW,2013-01-21 21:59:00,
2013-01-21 17:00:00,18.5,7.7,29.37,SW,225,8.5,11.6,62,0.16,,,3.25,WUHU216HW,2013-01-21 22:00:00,
2013-01-21 17:02:00,18.5,7.9,29.38,NW,315,3.4,11.6,63,0.16,,,3.41,WUHU216HW,2013-01-21 22:02:00,
2013-01-21 17:04:00,18.5,7.7,29.38,SSE,158,3.6,8.5,62,0.16,,,3.41,WUHU216HW,2013-01-21 22:04:00,
2013-01-21 17:05:00,18.4,7.8,29.38,WSW,248,2.5,8.5,63,0.16,,,3.41,WUHU216HW,2013-01-21 22:05:00,
2013-01-21 17:07:00,18.4,7.5,29.38,West,270,4.9,8.5,62,0.16,,,3.41,WUHU216HW,2013-01-21 22:07:00,
2013-01-21 17:09:00,18.4,7.8,29.38,West,270,6.3,8.5,63,0.16,,,3.41,WUHU216HW,2013-01-21 22:09:00,
2013-01-21 17:10:00,18.4,7.8,29.38,West,270,2.5,6.7,63,0.16,,,3.41,WUHU216HW,2013-01-21 22:10:00,
2013-01-21 17:12:00,18.2,8.0,29.38,West,270,4.3,6.7,64,0.16,,,3.41,WUHU216HW,2013-01-21 22:12:00,
2013-01-21 17:14:00,18.0,7.8,29.38,SSW,203,3.4,6.7,64,0.16,,,3.41,WUHU216HW,2013-01-21 22:14:00,
2013-01-21 17:15:00,18.2,8.3,29.38,NNW,338,2.5,6.7,65,0.16,,,3.41,WUHU216HW,2013-01-21 22:15:00,
2013-01-21 17:16:00,18.0,8.2,29.38,West,270,6.9,6.9,65,0.16,,,3.41,WUHU216HW,2013-01-21 22:16:00,
2013-01-21 17:17:00,18.0,8.2,29.38,NW,315,4.9,6.9,65,0.16,,,3.41,WUHU216HW,2013-01-21 22:17:00,
2013-01-21 17:19:00,17.8,8.0,29.38,WNW,293,7.2,8.5,65,0.16,,,3.41,WUHU216HW,2013-01-21 22:19:00,
2013-01-21 17:20:00,18.0,8.5,29.38,WSW,248,6.3,8.5,66,0.16,,,3.41,WUHU216HW,2013-01-21 22:20:00,
2013-01-21 17:21:00,17.8,8.0,29.38,WSW,248,4.7,9.8,65,0.16,,,3.41,WUHU216HW,2013-01-21 22:21:00,
2013-01-21 17:22:00,17.8,8.4,29.38,WSW,248,4.0,9.8,66,0.16,,,3.41,WUHU216HW,2013-01-21 22:22:00,
2013-01-21 17:24:00,17.8,9.0,29.38,WSW,248,4.3,9.8,68,0.16,,,3.41,WUHU216HW,2013-01-21 22:24:00,
2013-01-21 17:25:00,17.6,8.8,29.38,South,180,3.4,9.8,68,0.16,,,3.41,WUHU216HW,2013-01-21 22:25:00,
2013-01-21 17:26:00,17.6,8.8,29.38,WSW,248,5.8,9.8,68,0.16,,,3.41,WUHU216HW,2013-01-21 22:26:00,
2013-01-21 17:28:00,17.6,9.2,29.38,WSW,248,0.4,9.8,69,0.16,,,3.41,WUHU216HW,2013-01-21 22:28:00,
2013-01-21 17:29:00,17.5,9.0,29.38,NNW,338,2.5,9.8,69,0.16,,,3.41,WUHU216HW,2013-01-21 22:29:00,
2013-01-21 17:31:00,17.5,9.0,29.38,WNW,293,2.5,9.8,69,0.16,,,3.41,WUHU216HW,2013-01-21 22:31:00,
2013-01-21 17:32:00,17.3,8.8,29.38,West,270,3.1,6.0,69,0.16,,,3.41,WUHU216HW,2013-01-21 22:32:00,
2013-01-21 17:33:00,17.3,8.8,29.38,SSE,158,2.7,6.0,69,0.16,,,3.41,WUHU216HW,2013-01-21 22:33:00,
2013-01-21 17:34:00,17.3,8.8,29.38,WSW,248,2.2,6.0,69,0.16,,,3.41,WUHU216HW,2013-01-21 22:34:00,
2013-01-21 17:36:00,17.1,8.6,29.38,WSW,248,4.0,6.0,69,0.16,,,3.41,WUHU216HW,2013-01-21 22:36:00,
2013-01-21 17:37:00,17.1,8.6,29.38,SW,225,5.1,6.7,69,0.16,,,3.41,WUHU216HW,2013-01-21 22:37:00,
2013-01-21 17:38:00,17.1,8.6,29.38,West,270,5.1,6.7,69,0.16,,,3.41,WUHU216HW,2013-01-21 22:38:00,
2013-01-21 17:39:00,16.9,8.1,29.38,West,270,7.4,7.4,68,0.16,,,3.41,WUHU216HW,2013-01-21 22:39:00,
2013-01-21 17:41:00,16.9,8.1,29.39,NW,315,5.1,7.4,68,0.16,,,3.41,WUHU216HW,2013-01-21 22:41:00,
2013-01-21 17:42:00,16.9,8.1,29.38,SW,225,3.8,7.4,68,0.16,,,3.41,WUHU216HW,2013-01-21 22:42:00,
2013-01-21 17:43:00,16.9,8.1,29.38,WNW,293,1.8,7.4,68,0.16,,,3.41,WUHU216HW,2013-01-21 22:43:00,
2013-01-21 17:45:00,16.9,7.8,29.39,West,270,1.8,7.4,67,0.16,,,3.41,WUHU216HW,2013-01-21 22:45:00,
2013-01-21 17:46:00,16.9,7.8,29.39,West,270,1.6,7.4,67,0.16,,,3.41,WUHU216HW,2013-01-21 22:46:00,
2013-01-21 17:48:00,16.9,7.8,29.39,NW,315,3.6,7.4,67,0.16,,,3.41,WUHU216HW,2013-01-21 22:48:00,
2013-01-21 17:50:00,16.7,7.7,29.39,West,270,2.9,6.9,67,0.16,,,3.41,WUHU216HW,2013-01-21 22:50:00,
2013-01-21 17:51:00,16.7,7.7,29.39,SSW,203,5.4,6.9,67,0.16,,,3.41,WUHU216HW,2013-01-21 22:51:00,
2013-01-21 17:53:00,16.7,7.7,29.38,SSW,203,7.2,9.2,67,0.16,,,3.41,WUHU216HW,2013-01-21 22:53:00,
2013-01-21 17:55:00,16.7,7.7,29.38,WSW,248,3.8,9.2,67,0.16,,,3.41,WUHU216HW,2013-01-21 22:55:00,
2013-01-21 17:56:00,16.7,7.9,29.39,West,270,1.3,9.2,68,0.16,,,3.41,WUHU216HW,2013-01-21 22:56:00,
2013-01-21 17:58:00,16.7,7.7,29.39,SSW,203,2.9,9.2,67,0.16,,,3.41,WUHU216HW,2013-01-21 22:58:00,
2013-01-21 18:00:00,16.6,7.5,29.39,WSW,248,3.4,9.2,67,0.16,,,3.57,WUHU216HW,2013-01-21 23:00:00,
2013-01-21 18:01:00,16.6,7.5,29.39,WSW,248,7.8,9.2,67,0.16,,,3.57,WUHU216HW,2013-01-21 23:01:00,
2013-01-21 18:03:00,16.6,7.5,29.39,NW,315,2.2,9.2,67,0.16,,,3.57,WUHU216HW,2013-01-21 23:03:00,
2013-01-21 18:06:00,16.6,8.1,29.39,WNW,293,3.6,9.2,69,0.16,,,3.57,WUHU216HW,2013-01-21 23:06:00,
2013-01-21 18:08:00,16.6,8.1,29.39,SSW,203,4.0,9.2,69,0.16,,,3.57,WUHU216HW,2013-01-21 23:08:00,
2013-01-21 18:11:00,16.6,8.7,29.39,West,270,6.5,9.2,71,0.16,,,3.57,WUHU216HW,2013-01-21 23:11:00,
2013-01-21 18:12:00,16.6,8.7,29.39,SSW,203,3.6,8.1,71,0.16,,,3.57,WUHU216HW,2013-01-21 23:12:00,
2013-01-21 18:13:00,16.6,8.7,29.39,WSW,248,2.9,8.1,71,0.16,,,3.57,WUHU216HW,2013-01-21 23:13:00,
2013-01-21 18:16:00,16.4,8.6,29.39,WNW,293,4.3,8.1,71,0.16,,,3.57,WUHU216HW,2013-01-21 23:16:00,
2013-01-21 18:17:00,16.4,8.9,29.39,WSW,248,4.5,8.1,72,0.16,,,3.57,WUHU216HW,2013-01-21 23:17:00,
2013-01-21 18:18:00,16.4,8.9,29.39,West,270,6.9,8.1,72,0.16,,,3.57,WUHU216HW,2013-01-21 23:18:00,
2013-01-21 18:19:00,16.4,9.2,29.39,West,270,6.9,8.1,73,0.16,,,3.57,WUHU216HW,2013-01-21 23:19:00,
2013-01-21 18:21:00,16.2,9.0,29.39,SW,225,4.5,7.6,73,0.16,,,3.57,WUHU216HW,2013-01-21 23:21:00,
2013-01-21 18:22:00,16.2,9.0,29.39,WNW,293,5.4,7.6,73,0.16,,,3.57,WUHU216HW,2013-01-21 23:22:00,
2013-01-21 18:24:00,16.2,9.0,29.39,SW,225,1.8,7.6,73,0.16,,,3.57,WUHU216HW,2013-01-21 23:24:00,
2013-01-21 18:26:00,16.2,9.3,29.39,SSW,203,2.5,7.6,74,0.16,,,3.57,WUHU216HW,2013-01-21 23:26:00,
2013-01-21 18:27:00,16.2,9.3,29.39,West,270,7.2,7.6,74,0.16,,,3.57,WUHU216HW,2013-01-21 23:27:00,
2013-01-21 18:29:00,16.2,9.3,29.39,WSW,248,1.8,7.6,74,0.16,,,3.57,WUHU216HW,2013-01-21 23:29:00,
2013-01-21 18:31:00,16.2,9.3,29.39,SSE,158,2.2,7.2,74,0.16,,,3.57,WUHU216HW,2013-01-21 23:31:00,
2013-01-21 18:33:00,16.2,9.9,29.39,West,270,4.0,7.2,76,0.16,,,3.57,WUHU216HW,2013-01-21 23:33:00,
2013-01-21 18:34:00,16.2,10.5,29.39,WSW,248,4.9,7.2,78,0.16,,,3.57,WUHU216HW,2013-01-21 23:34:00,
2013-01-21 18:36:00,16.0,10.6,29.39,WNW,293,1.3,7.4,79,0.16,,,3.57,WUHU216HW,2013-01-21 23:36:00,
2013-01-21 18:38:00,15.8,10.2,29.39,SE,135,1.1,7.4,78,0.16,,,3.57,WUHU216HW,2013-01-21 23:38:00,
2013-01-21 18:39:00,15.8,10.8,29.39,SSE,158,1.1,7.4,80,0.16,,,3.57,WUHU216HW,2013-01-21 23:39:00,
2013-01-21 18:41:00,15.7,10.4,29.39,WSW,248,2.5,7.4,79,0.16,,,3.57,WUHU216HW,2013-01-21 23:41:00,
2013-01-21 18:43:00,15.5,10.2,29.39,WSW,248,1.8,7.4,79,0.16,,,3.57,WUHU216HW,2013-01-21 23:43:00,
2013-01-21 18:44:00,15.5,10.2,29.39,West,270,2.0,7.4,79,0.16,,,3.57,WUHU216HW,2013-01-21 23:44:00,
2013-01-21 18:46:00,15.5,10.4,29.40,WSW,248,4.0,5.4,80,0.16,,,3.57,WUHU216HW,2013-01-21 23:46:00,
2013-01-21 18:48:00,15.5,10.2,29.40,SW,225,4.0,5.4,79,0.16,,,3.57,WUHU216HW,2013-01-21 23:48:00,
2013-01-21 18:49:00,15.5,10.2,29.39,SW,225,1.3,5.4,79,0.16,,,3.57,WUHU216HW,2013-01-21 23:49:00,
2013-01-21 18:51:00,15.5,10.4,29.40,NW,315,3.4,5.4,80,0.16,,,3.57,WUHU216HW,2013-01-21 23:51:00,
2013-01-21 18:53:00,15.5,10.4,29.40,WNW,293,4.9,6.3,80,0.16,,,3.57,WUHU216HW,2013-01-21 23:53:00,
2013-01-21 18:54:00,15.5,10.7,29.40,West,270,4.0,6.3,81,0.16,,,3.57,WUHU216HW,2013-01-21 23:54:00,
2013-01-21 18:56:00,15.3,10.8,29.40,SW,225,2.0,6.3,82,0.16,,,3.57,WUHU216HW,2013-01-21 23:56:00,
2013-01-21 18:58:00,15.3,10.8,29.40,SSW,203,3.4,6.3,82,0.16,,,3.57,WUHU216HW,2013-01-21 23:58:00,
2013-01-21 18:59:00,15.3,11.1,29.40,WSW,248,2.9,6.3,83,0.16,,,3.57,WUHU216HW,2013-01-21 23:59:00,
2013-01-21 19:00:00,15.3,11.1,29.40,West,270,5.4,6.3,83,0.16,,,3.57,WUHU216HW,2013-01-22 00:00:00,
2013-01-21 19:01:00,15.3,10.5,29.40,WNW,293,2.0,6.3,81,0.17,,,3.74,WUHU216HW,2013-01-22 00:01:00,
2013-01-21 19:04:00,15.1,10.9,29.40,WSW,248,4.5,6.5,83,0.17,,,3.74,WUHU216HW,2013-01-22 00:04:00,
2013-01-21 19:05:00,15.1,10.9,29.40,SSW,203,5.6,7.2,83,0.17,,,3.74,WUHU216HW,2013-01-22 00:05:00,
2013-01-21 19:07:00,14.9,10.5,29.40,SSW,203,3.6,7.2,82,0.17,,,3.74,WUHU216HW,2013-01-22 00:07:00,
2013-01-21 19:09:00,14.8,10.5,29.40,SSW,203,4.5,8.3,83,0.17,,,3.74,WUHU216HW,2013-01-22 00:09:00,
2013-01-21 19:10:00,14.8,10.5,29.40,West,270,5.1,8.3,83,0.17,,,3.74,WUHU216HW,2013-01-22 00:10:00,
2013-01-21 19:12:00,14.6,10.4,29.40,SSW,203,3.1,8.3,83,0.17,,,3.74,WUHU216HW,2013-01-22 00:12:00,
2013-01-21 19:14:00,14.6,10.4,29.40,WSW,248,3.8,8.3,83,0.17,,,3.74,WUHU216HW,2013-01-22 00:14:00,
2013-01-21 19:15:00,14.6,10.4,29.40,West,270,3.1,8.3,83,0.17,,,3.74,WUHU216HW,2013-01-22 00:15:00,
2013-01-21 19:17:00,14.4,10.2,29.40,West,270,4.5,8.3,83,0.17,,,3.74,WUHU216HW,2013-01-22 00:17:00,
2013-01-21 19:19:00,14.4,10.2,29.40,SSE,158,5.6,8.5,83,0.17,,,3.74,WUHU216HW,2013-01-22 00:19:00,
2013-01-21 19:20:00,14.4,10.2,29.40,East,90,1.3,8.5,83,0.17,,,3.74,WUHU216HW,2013-01-22 00:20:00,
2013-01-21 19:22:00,14.4,10.2,29.39,WSW,248,4.7,8.5,83,0.17,,,3.74,WUHU216HW,2013-01-22 00:22:00,
2013-01-21 19:24:00,14.4,10.2,29.39,SSE,158,6.0,8.5,83,0.17,,,3.74,WUHU216HW,2013-01-22 00:24:00,
2013-01-21 19:25:00,14.4,10.2,29.39,SSE,158,6.0,8.5,83,0.17,,,3.74,WUHU216HW,2013-01-22 00:25:00,
2013-01-21 19:27:00,14.4,9.9,29.39,SW,225,1.6,8.5,82,0.17,,,3.74,WUHU216HW,2013-01-22 00:27:00,
2013-01-21 19:29:00,14.4,9.6,29.40,NW,315,6.3,6.3,81,0.17,,,3.74,WUHU216HW,2013-01-22 00:29:00,
2013-01-21 19:30:00,14.4,9.6,29.40,SW,225,2.0,6.3,81,0.17,,,3.74,WUHU216HW,2013-01-22 00:30:00,
2013-01-21 19:32:00,14.4,9.4,29.40,South,180,4.0,7.2,80,0.17,,,3.74,WUHU216HW,2013-01-22 00:32:00,
2013-01-21 19:34:00,14.4,9.6,29.40,West,270,2.2,7.6,81,0.17,,,3.74,WUHU216HW,2013-01-22 00:34:00,
2013-01-21 19:35:00,14.2,9.5,29.40,NNW,338,2.9,7.6,81,0.17,,,3.74,WUHU216HW,2013-01-22 00:35:00,
2013-01-21 19:37:00,14.0,9.5,29.40,SSW,203,4.9,8.9,82,0.17,,,3.74,WUHU216HW,2013-01-22 00:37:00,
2013-01-21 19:40:00,14.0,9.8,29.40,WSW,248,2.9,8.9,83,0.17,,,3.74,WUHU216HW,2013-01-22 00:40:00,
2013-01-21 19:42:00,14.0,10.1,29.40,West,270,3.4,8.9,84,0.17,,,3.74,WUHU216HW,2013-01-22 00:42:00,
2013-01-21 19:45:00,13.9,9.9,29.40,SW,225,3.4,8.9,84,0.17,,,3.74,WUHU216HW,2013-01-22 00:45:00,
2013-01-21 19:47:00,13.7,10.0,29.40,SSW,203,3.4,8.5,85,0.17,,,3.74,WUHU216HW,2013-01-22 00:47:00,
2013-01-21 19:50:00,13.7,9.7,29.40,SW,225,6.5,8.5,84,0.17,,,3.74,WUHU216HW,2013-01-22 00:50:00,
2013-01-21 19:52:00,13.7,9.7,29.40,West,270,4.0,8.5,84,0.17,,,3.74,WUHU216HW,2013-01-22 00:52:00,
2013-01-21 19:55:00,13.7,10.0,29.40,WSW,248,2.5,8.5,85,0.17,,,3.74,WUHU216HW,2013-01-22 00:55:00,
2013-01-21 19:57:00,13.7,10.0,29.40,WNW,293,4.9,6.7,85,0.17,,,3.74,WUHU216HW,2013-01-22 00:57:00,
2013-01-21 20:00:00,13.7,10.0,29.40,West,270,0.7,6.7,85,0.00,,,3.74,WUHU216HW,2013-01-22 01:00:00,
2013-01-21 20:01:00,13.7,10.0,29.40,SW,225,2.5,6.7,85,0.16,,,3.90,WUHU216HW,2013-01-22 01:01:00,
2013-01-21 20:02:00,13.7,9.7,29.40,SSW,203,1.8,6.7,84,0.16,,,3.90,WUHU216HW,2013-01-22 01:02:00,
2013-01-21 20:05:00,13.7,10.0,29.40,WSW,248,4.5,5.6,85,0.16,,,3.90,WUHU216HW,2013-01-22 01:05:00,
2013-01-21 20:06:00,13.7,10.0,29.40,WSW,248,3.6,5.6,85,0.16,,,3.90,WUHU216HW,2013-01-22 01:06:00,
2013-01-21 20:07:00,13.5,9.8,29.40,SE,135,3.4,5.4,85,0.16,,,3.90,WUHU216HW,2013-01-22 01:07:00,
2013-01-21 20:10:00,13.5,9.8,29.40,SSW,203,2.9,5.4,85,0.16,,,3.90,WUHU216HW,2013-01-22 01:10:00,
2013-01-21 20:11:00,13.7,9.7,29.40,SSW,203,2.0,5.4,84,0.16,,,3.90,WUHU216HW,2013-01-22 01:11:00,
2013-01-21 20:13:00,13.7,9.7,29.40,West,270,3.6,6.3,84,0.16,,,3.90,WUHU216HW,2013-01-22 01:13:00,
2013-01-21 20:15:00,13.7,9.7,29.40,WNW,293,1.6,6.3,84,0.16,,,3.90,WUHU216HW,2013-01-22 01:15:00,
2013-01-21 20:16:00,13.7,9.7,29.40,South,180,0.2,6.3,84,0.16,,,3.90,WUHU216HW,2013-01-22 01:16:00,
2013-01-21 20:18:00,13.7,9.7,29.40,SW,225,2.2,6.3,84,0.16,,,3.90,WUHU216HW,2013-01-22 01:18:00,
2013-01-21 20:20:00,13.7,9.7,29.40,West,270,3.1,6.3,84,0.16,,,3.90,WUHU216HW,2013-01-22 01:20:00,
2013-01-21 20:21:00,13.7,9.7,29.40,WNW,293,2.9,6.3,84,0.16,,,3.90,WUHU216HW,2013-01-22 01:21:00,
2013-01-21 20:23:00,13.5,9.5,29.40,West,270,1.8,5.6,84,0.16,,,3.90,WUHU216HW,2013-01-22 01:23:00,
2013-01-21 20:26:00,13.5,9.5,29.40,SSE,158,3.1,5.6,84,0.16,,,3.90,WUHU216HW,2013-01-22 01:26:00,
2013-01-21 20:29:00,13.5,9.3,29.40,WSW,248,4.0,4.5,83,0.16,,,3.90,WUHU216HW,2013-01-22 01:29:00,
2013-01-21 20:31:00,13.5,9.3,29.40,WSW,248,2.7,4.5,83,0.16,,,3.90,WUHU216HW,2013-01-22 01:31:00,
2013-01-21 20:34:00,13.5,9.3,29.40,West,270,1.8,4.7,83,0.16,,,3.90,WUHU216HW,2013-01-22 01:34:00,
2013-01-21 20:36:00,13.5,9.3,29.41,WSW,248,4.7,4.7,83,0.16,,,3.90,WUHU216HW,2013-01-22 01:36:00,
2013-01-21 20:37:00,13.3,9.1,29.41,West,270,3.4,4.7,83,0.16,,,3.90,WUHU216HW,2013-01-22 01:37:00,
2013-01-21 20:39:00,13.3,8.8,29.40,West,270,5.1,5.1,82,0.16,,,3.90,WUHU216HW,2013-01-22 01:39:00,
2013-01-21 20:41:00,13.3,8.8,29.40,WSW,248,1.1,5.1,82,0.16,,,3.90,WUHU216HW,2013-01-22 01:41:00,
2013-01-21 20:42:00,13.3,8.8,29.41,West,270,1.8,5.1,82,0.16,,,3.90,WUHU216HW,2013-01-22 01:42:00,
2013-01-21 20:44:00,13.3,8.8,29.40,SW,225,4.5,5.8,82,0.16,,,3.90,WUHU216HW,2013-01-22 01:44:00,
2013-01-21 20:46:00,13.3,8.8,29.41,West,270,2.9,5.8,82,0.16,,,3.90,WUHU216HW,2013-01-22 01:46:00,
2013-01-21 20:47:00,13.3,8.8,29.41,West,270,4.9,6.3,82,0.16,,,3.90,WUHU216HW,2013-01-22 01:47:00,
2013-01-21 20:49:00,13.3,8.6,29.41,WSW,248,4.7,6.3,81,0.16,,,3.90,WUHU216HW,2013-01-22 01:49:00,
2013-01-21 20:52:00,13.3,8.6,29.41,WSW,248,6.3,6.3,81,0.16,,,3.90,WUHU216HW,2013-01-22 01:52:00,
2013-01-21 20:54:00,13.3,8.6,29.41,WSW,248,3.1,8.1,81,0.16,,,3.90,WUHU216HW,2013-01-22 01:54:00,
2013-01-21 20:57:00,13.3,8.6,29.41,SW,225,1.1,8.1,81,0.16,,,3.90,WUHU216HW,2013-01-22 01:57:00,
2013-01-21 20:59:00,13.3,8.6,29.41,SSW,203,4.0,8.1,81,0.16,,,3.90,WUHU216HW,2013-01-22 01:59:00,
2013-01-21 21:02:00,13.3,8.6,29.41,NW,315,7.4,8.1,81,0.16,,,4.06,WUHU216HW,2013-01-22 02:02:00,
2013-01-21 21:04:00,13.3,8.6,29.41,West,270,1.1,7.4,81,0.16,,,4.06,WUHU216HW,2013-01-22 02:04:00,
2013-01-21 21:07:00,13.3,8.6,29.41,WSW,248,2.7,7.4,81,0.16,,,4.06,WUHU216HW,2013-01-22 02:07:00,
2013-01-21 21:08:00,13.3,8.6,29.41,SW,225,4.7,7.4,81,0.16,,,4.06,WUHU216HW,2013-01-22 02:08:00,
2013-01-21 21:09:00,13.1,8.4,29.41,WSW,248,1.8,7.4,81,0.16,,,4.06,WUHU216HW,2013-01-22 02:09:00,
2013-01-21 21:12:00,13.1,8.4,29.41,WSW,248,2.7,6.5,81,0.16,,,4.06,WUHU216HW,2013-01-22 02:12:00,
2013-01-21 21:13:00,13.1,8.4,29.41,WSW,248,3.6,6.5,81,0.16,,,4.06,WUHU216HW,2013-01-22 02:13:00,
2013-01-21 21:15:00,13.1,8.4,29.41,WSW,248,4.7,6.5,81,0.16,,,4.06,WUHU216HW,2013-01-22 02:15:00,
2013-01-21 21:17:00,13.0,8.2,29.41,West,270,3.6,6.5,81,0.16,,,4.06,WUHU216HW,2013-01-22 02:17:00,
2013-01-21 21:18:00,13.0,8.2,29.41,WSW,248,6.5,7.2,81,0.16,,,4.06,WUHU216HW,2013-01-22 02:18:00,
2013-01-21 21:20:00,13.0,8.2,29.41,SW,225,4.0,9.8,81,0.16,,,4.06,WUHU216HW,2013-01-22 02:20:00,
2013-01-21 21:22:00,13.0,7.9,29.41,WSW,248,4.0,9.8,80,0.16,,,4.06,WUHU216HW,2013-01-22 02:22:00,
2013-01-21 21:23:00,13.0,7.9,29.41,WSW,248,4.0,9.8,80,0.16,,,4.06,WUHU216HW,2013-01-22 02:23:00,
2013-01-21 21:25:00,13.0,8.2,29.42,SSW,203,2.0,9.8,81,0.16,,,4.06,WUHU216HW,2013-01-22 02:25:00,
2013-01-21 21:28:00,13.0,8.2,29.42,West,270,2.2,9.8,81,0.16,,,4.06,WUHU216HW,2013-01-22 02:28:00,
2013-01-21 21:30:00,13.0,8.2,29.42,SW,225,3.8,6.5,81,0.16,,,4.06,WUHU216HW,2013-01-22 02:30:00,
2013-01-21 21:33:00,13.0,8.2,29.42,West,270,5.4,6.5,81,0.16,,,4.06,WUHU216HW,2013-01-22 02:33:00,
2013-01-21 21:35:00,12.8,8.0,29.42,SSW,203,5.4,6.5,81,0.16,,,4.06,WUHU216HW,2013-01-22 02:35:00,
2013-01-21 21:38:00,12.8,8.0,29.42,WSW,248,3.8,8.7,81,0.16,,,4.06,WUHU216HW,2013-01-22 02:38:00,
2013-01-21 21:41:00,12.8,7.7,29.42,NW,315,4.0,8.7,80,0.16,,,4.06,WUHU216HW,2013-01-22 02:41:00,
2013-01-21 21:43:00,12.8,8.0,29.42,West,270,5.4,8.7,81,0.16,,,4.06,WUHU216HW,2013-01-22 02:43:00,
2013-01-21 21:46:00,12.6,7.8,29.42,SSW,203,2.5,8.9,81,0.16,,,4.06,WUHU216HW,2013-01-22 02:46:00,
2013-01-21 21:48:00,12.6,8.1,29.42,West,270,4.0,8.9,82,0.16,,,4.06,WUHU216HW,2013-01-22 02:48:00,
2013-01-21 21:51:00,12.6,8.4,29.43,West,270,2.5,8.9,83,0.16,,,4.06,WUHU216HW,2013-01-22 02:51:00,
2013-01-21 21:53:00,12.4,8.2,29.42,WSW,248,3.8,8.9,83,0.16,,,4.06,WUHU216HW,2013-01-22 02:53:00,
2013-01-21 21:54:00,12.4,8.2,29.42,WSW,248,7.8,8.9,83,0.16,,,4.06,WUHU216HW,2013-01-22 02:54:00,
2013-01-21 21:56:00,12.2,8.3,29.42,SW,225,3.4,8.5,84,0.16,,,4.06,WUHU216HW,2013-01-22 02:56:00,
2013-01-21 21:58:00,12.2,8.3,29.42,SW,225,1.3,8.5,84,0.16,,,4.06,WUHU216HW,2013-01-22 02:58:00,
2013-01-21 21:59:00,12.2,8.3,29.42,WSW,248,0.9,8.5,84,0.16,,,4.06,WUHU216HW,2013-01-22 02:59:00,
2013-01-21 22:01:00,12.1,8.1,29.42,WSW,248,3.6,8.5,84,0.16,,,4.22,WUHU216HW,2013-01-22 03:01:00,
2013-01-21 22:04:00,12.1,8.4,29.42,NW,315,4.9,7.8,85,0.16,,,4.22,WUHU216HW,2013-01-22 03:04:00,
2013-01-21 22:06:00,12.1,8.4,29.42,South,180,2.0,6.5,85,0.16,,,4.22,WUHU216HW,2013-01-22 03:06:00,
2013-01-21 22:09:00,12.1,8.4,29.42,WSW,248,6.3,6.5,85,0.16,,,4.22,WUHU216HW,2013-01-22 03:09:00,
2013-01-21 22:11:00,12.1,8.4,29.42,WSW,248,1.8,7.4,85,0.16,,,4.22,WUHU216HW,2013-01-22 03:11:00,
2013-01-21 22:14:00,12.1,8.4,29.42,West,270,1.8,7.4,85,0.16,,,4.22,WUHU216HW,2013-01-22 03:14:00,
2013-01-21 22:16:00,11.9,8.2,29.42,WSW,248,2.5,7.4,85,0.16,,,4.22,WUHU216HW,2013-01-22 03:16:00,
2013-01-21 22:19:00,11.9,8.5,29.42,West,270,1.6,7.4,86,0.16,,,4.22,WUHU216HW,2013-01-22 03:19:00,
2013-01-21 22:20:00,11.9,8.5,29.42,West,270,1.6,6.9,86,0.16,,,4.22,WUHU216HW,2013-01-22 03:20:00,
2013-01-21 22:21:00,11.9,8.2,29.42,WNW,293,3.4,6.9,85,0.16,,,4.22,WUHU216HW,2013-01-22 03:21:00,
2013-01-21 22:24:00,11.9,8.2,29.43,SSW,203,3.6,6.9,85,0.16,,,4.22,WUHU216HW,2013-01-22 03:24:00,
2013-01-21 22:25:00,11.9,8.2,29.43,SW,225,4.7,6.9,85,0.16,,,4.22,WUHU216HW,2013-01-22 03:25:00,
2013-01-21 22:26:00,11.9,8.2,29.43,NW,315,4.0,6.3,85,0.16,,,4.22,WUHU216HW,2013-01-22 03:26:00,
2013-01-21 22:29:00,11.7,8.0,29.43,WNW,293,3.1,6.3,85,0.16,,,4.22,WUHU216HW,2013-01-22 03:29:00,
2013-01-21 22:30:00,11.7,8.0,29.43,WSW,248,3.1,6.3,85,0.16,,,4.22,WUHU216HW,2013-01-22 03:30:00,
2013-01-21 22:32:00,11.7,8.0,29.43,NW,315,3.6,6.3,85,0.16,,,4.22,WUHU216HW,2013-01-22 03:32:00,
2013-01-21 22:34:00,11.5,7.8,29.43,West,270,4.9,6.5,85,0.16,,,4.22,WUHU216HW,2013-01-22 03:34:00,
2013-01-21 22:35:00,11.5,7.8,29.43,SW,225,5.8,6.5,85,0.16,,,4.22,WUHU216HW,2013-01-22 03:35:00,
2013-01-21 22:37:00,11.5,7.8,29.43,WSW,248,3.6,6.5,85,0.16,,,4.22,WUHU216HW,2013-01-22 03:37:00,
2013-01-21 22:39:00,11.5,7.8,29.43,West,270,0.4,6.5,85,0.16,,,4.22,WUHU216HW,2013-01-22 03:39:00,
2013-01-21 22:40:00,11.5,7.8,29.43,West,270,1.6,6.5,85,0.16,,,4.22,WUHU216HW,2013-01-22 03:40:00,
2013-01-21 22:42:00,11.5,7.8,29.43,SW,225,1.6,6.5,85,0.16,,,4.22,WUHU216HW,2013-01-22 03:42:00,
2013-01-21 22:44:00,11.5,7.8,29.43,WNW,293,1.1,5.8,85,0.16,,,4.22,WUHU216HW,2013-01-22 03:44:00,
2013-01-21 22:45:00,11.5,7.8,29.43,WSW,248,4.7,7.8,85,0.16,,,4.22,WUHU216HW,2013-01-22 03:45:00,
2013-01-21 22:47:00,11.3,7.1,29.43,SW,225,2.9,7.8,83,0.16,,,4.22,WUHU216HW,2013-01-22 03:47:00,
2013-01-21 22:50:00,11.2,6.7,29.43,SSW,203,5.8,7.8,82,0.16,,,4.22,WUHU216HW,2013-01-22 03:50:00,
2013-01-21 22:53:00,11.2,6.4,29.43,West,270,4.0,7.8,81,0.16,,,4.22,WUHU216HW,2013-01-22 03:53:00,
2013-01-21 22:55:00,11.2,6.4,29.43,West,270,4.9,7.8,81,0.16,,,4.22,WUHU216HW,2013-01-22 03:55:00,
2013-01-21 22:58:00,11.2,6.4,29.43,SW,225,4.0,6.9,81,0.16,,,4.22,WUHU216HW,2013-01-22 03:58:00,
2013-01-21 23:00:00,11.0,6.2,29.43,WSW,248,0.7,6.9,81,0.16,,,4.22,WUHU216HW,2013-01-22 04:00:00,
2013-01-21 23:01:00,11.0,6.2,29.43,ESE,113,1.6,6.9,81,0.17,,,4.39,WUHU216HW,2013-01-22 04:01:00,
2013-01-21 23:03:00,11.2,6.4,29.43,WSW,248,5.4,6.3,81,0.17,,,4.39,WUHU216HW,2013-01-22 04:03:00,
2013-01-21 23:05:00,11.0,6.5,29.43,WSW,248,1.6,6.0,82,0.17,,,4.39,WUHU216HW,2013-01-22 04:05:00,
2013-01-21 23:06:00,11.0,6.2,29.43,West,270,3.8,6.0,81,0.17,,,4.39,WUHU216HW,2013-01-22 04:06:00,
2013-01-21 23:08:00,11.0,6.2,29.43,WSW,248,4.7,7.2,81,0.17,,,4.39,WUHU216HW,2013-01-22 04:08:00,
2013-01-21 23:10:00,10.8,6.3,29.43,SE,135,3.1,7.2,82,0.17,,,4.39,WUHU216HW,2013-01-22 04:10:00,
2013-01-21 23:11:00,10.8,6.3,29.43,SW,225,1.8,7.2,82,0.17,,,4.39,WUHU216HW,2013-01-22 04:11:00,
2013-01-21 23:13:00,10.8,6.0,29.43,SSW,203,3.8,7.2,81,0.17,,,4.39,WUHU216HW,2013-01-22 04:13:00,
2013-01-21 23:15:00,10.6,6.1,29.43,West,270,4.9,8.5,82,0.17,,,4.39,WUHU216HW,2013-01-22 04:15:00,
2013-01-21 23:16:00,10.6,6.1,29.43,SSW,203,3.6,8.5,82,0.17,,,4.39,WUHU216HW,2013-01-22 04:16:00,
2013-01-21 23:18:00,10.4,6.2,29.44,WSW,248,3.6,8.5,83,0.17,,,4.39,WUHU216HW,2013-01-22 04:18:00,
2013-01-21 23:21:00,10.4,6.2,29.44,SSW,203,3.8,8.5,83,0.17,,,4.39,WUHU216HW,2013-01-22 04:21:00,
2013-01-21 23:23:00,10.4,6.2,29.44,West,270,2.5,8.5,83,0.17,,,4.39,WUHU216HW,2013-01-22 04:23:00,
2013-01-21 23:26:00,10.4,6.2,29.44,WSW,248,0.2,6.9,83,0.17,,,4.39,WUHU216HW,2013-01-22 04:26:00,
2013-01-21 23:27:00,10.4,6.2,29.44,WSW,248,2.0,6.9,83,0.17,,,4.39,WUHU216HW,2013-01-22 04:27:00,
2013-01-21 23:28:00,10.4,6.2,29.44,WSW,248,1.8,6.9,83,0.17,,,4.39,WUHU216HW,2013-01-22 04:28:00,
2013-01-21 23:31:00,10.4,6.2,29.44,SSW,203,2.9,6.9,83,0.17,,,4.39,WUHU216HW,2013-01-22 04:31:00,
2013-01-21 23:32:00,10.4,6.2,29.44,NW,315,4.3,6.9,83,0.17,,,4.39,WUHU216HW,2013-01-22 04:32:00,
2013-01-21 23:33:00,10.4,6.2,29.44,SSW,203,2.7,5.4,83,0.17,,,4.39,WUHU216HW,2013-01-22 04:33:00,
2013-01-21 23:36:00,10.4,6.5,29.44,West,270,1.1,5.4,84,0.17,,,4.39,WUHU216HW,2013-01-22 04:36:00,
2013-01-21 23:37:00,10.4,6.5,29.44,West,270,1.1,5.4,84,0.17,,,4.39,WUHU216HW,2013-01-22 04:37:00,
2013-01-21 23:38:00,10.3,6.3,29.44,SSW,203,1.3,5.4,84,0.17,,,4.39,WUHU216HW,2013-01-22 04:38:00,
2013-01-21 23:42:00,10.3,6.0,29.44,SW,225,2.5,3.8,83,0.17,,,4.39,WUHU216HW,2013-01-22 04:42:00,
2013-01-21 23:43:00,10.3,6.3,29.44,SW,225,0.9,3.8,84,0.17,,,4.39,WUHU216HW,2013-01-22 04:43:00,
2013-01-21 23:47:00,10.3,6.3,29.44,SW,225,2.2,3.8,84,0.17,,,4.39,WUHU216HW,2013-01-22 04:47:00,
2013-01-21 23:48:00,10.3,6.0,29.44,WSW,248,2.5,3.8,83,0.17,,,4.39,WUHU216HW,2013-01-22 04:48:00,
2013-01-21 23:52:00,10.1,6.1,29.44,West,270,4.3,4.3,84,0.17,,,4.39,WUHU216HW,2013-01-22 04:52:00,
2013-01-21 23:53:00,10.1,6.1,29.44,NW,315,2.5,4.3,84,0.17,,,4.39,WUHU216HW,2013-01-22 04:53:00,
2013-01-21 23:54:00,10.1,6.1,29.44,SW,225,4.0,4.3,84,0.17,,,4.39,WUHU216HW,2013-01-22 04:54:00,
2013-01-21 23:57:00,10.1,6.1,29.44,SW,225,1.8,4.3,84,0.17,,,4.39,WUHU216HW,2013-01-22 04:57:00,
2013-01-21 23:58:00,9.9,5.9,29.44,West,270,5.6,5.6,84,0.17,,,4.39,WUHU216HW,2013-01-22 04:58:00,
2013-01-21 23:59:00,9.9,5.9,29.44,West,270,0.4,5.6,84,0.17,,,4.39,WUHU216HW,2013-01-22 04:59:00,